| time (UTC) | temp F | wind direction | speed MPH | gust MPH | rain 1hr in | rain 24hr in | rain mn in | humidity % | barometer mb |
| 20260508105021 | 48 | 78 | 4.0 | 8.0 | 0.00 | 0.00 | 0.00 | 56 | 1017.5 |
| 20260508104920 | 47 | 65 | 4.0 | 8.0 | 0.00 | 0.00 | 0.00 | 56 | 1017.5 |
| 20260508104822 | 48 | 69 | 4.0 | 8.0 | 0.00 | 0.00 | 0.00 | 56 | 1017.6 |
| 20260508104721 | 48 | 61 | 4.0 | 8.0 | 0.00 | 0.00 | 0.00 | 56 | 1017.6 |
| 20260508104620 | 48 | 76 | 4.0 | 8.0 | 0.00 | 0.00 | 0.00 | 56 | 1017.5 |
| 20260508104551 | 48 | 62 | 4.0 | 8.0 | 0.00 | 0.00 | 0.00 | 56 | 1017.5 |
| 20260508104541 | 48 | 67 | 4.0 | 8.0 | 0.00 | 0.00 | 0.00 | 56 | 1017.5 |
| 20260508104322 | 48 | 83 | 4.0 | 8.0 | 0.00 | 0.00 | 0.00 | 57 | 1017.5 |
| 20260508104256 | 48 | 57 | 4.0 | 8.0 | 0.00 | 0.00 | 0.00 | 56 | 1017.4 |
| 20260508104245 | 48 | 77 | 4.0 | 8.0 | 0.00 | 0.00 | 0.00 | 56 | 1017.5 |
| 20260508104021 | 48 | 76 | 4.0 | 9.0 | 0.00 | 0.00 | 0.00 | 56 | 1017.5 |
| 20260508103922 | 48 | 51 | 4.0 | 9.0 | 0.00 | 0.00 | 0.00 | 56 | 1017.4 |
| 20260508103821 | 48 | 58 | 4.0 | 9.0 | 0.00 | 0.00 | 0.00 | 56 | 1017.4 |
| 20260508103721 | 48 | 67 | 4.0 | 9.0 | 0.00 | 0.00 | 0.00 | 56 | 1017.4 |
| 20260508103620 | 48 | 67 | 4.0 | 9.0 | 0.00 | 0.00 | 0.00 | 56 | 1017.5 |
| 20260508103521 | 47 | 74 | 4.0 | 9.0 | 0.00 | 0.00 | 0.00 | 57 | 1017.4 |
| 20260508103422 | 47 | 45 | 4.0 | 9.0 | 0.00 | 0.00 | 0.00 | 57 | 1017.5 |
| 20260508103321 | 47 | 59 | 4.0 | 9.0 | 0.00 | 0.00 | 0.00 | 56 | 1017.5 |
| 20260508103222 | 47 | 69 | 4.0 | 9.0 | 0.00 | 0.00 | 0.00 | 56 | 1017.4 |
| 20260508103148 | 47 | 63 | 4.0 | 9.0 | 0.00 | 0.00 | 0.00 | 57 | 1017.5 |
| 20260508103137 | 47 | 62 | 4.0 | 9.0 | 0.00 | 0.00 | 0.00 | 57 | 1017.4 |
| 20260508102918 | 48 | 78 | 4.0 | 9.0 | 0.00 | 0.00 | 0.00 | 56 | 1017.4 |
| 20260508102817 | 48 | 67 | 5.0 | 9.0 | 0.00 | 0.00 | 0.00 | 56 | 1017.4 |
| 20260508102717 | 48 | 83 | 4.0 | 9.0 | 0.00 | 0.00 | 0.00 | 57 | 1017.3 |
| 20260508102617 | 48 | 70 | 4.0 | 9.0 | 0.00 | 0.00 | 0.00 | 57 | 1017.4 |
| 20260508102517 | 48 | 47 | 5.0 | 9.0 | 0.00 | 0.00 | 0.00 | 56 | 1017.4 |
| 20260508102418 | 48 | 51 | 5.0 | 11.0 | 0.00 | 0.00 | 0.00 | 56 | 1017.3 |
| 20260508102318 | 48 | 66 | 5.0 | 11.0 | 0.00 | 0.00 | 0.00 | 56 | 1017.3 |
| 20260508102218 | 48 | 61 | 5.0 | 11.0 | 0.00 | 0.00 | 0.00 | 56 | 1017.3 |
| 20260508102119 | 48 | 46 | 5.0 | 11.0 | 0.00 | 0.00 | 0.00 | 56 | 1017.3 |
| 20260508102017 | 48 | 68 | 5.0 | 11.0 | 0.00 | 0.00 | 0.00 | 56 | 1017.4 |
| 20260508101919 | 48 | 59 | 5.0 | 11.0 | 0.00 | 0.00 | 0.00 | 57 | 1017.3 |
| 20260508101817 | 48 | 69 | 5.0 | 11.0 | 0.00 | 0.00 | 0.00 | 57 | 1017.3 |
| 20260508101752 | 48 | 51 | 6.0 | 11.0 | 0.00 | 0.00 | 0.00 | 56 | 1017.3 |
| 20260508101741 | 48 | 57 | 5.0 | 11.0 | 0.00 | 0.00 | 0.00 | 56 | 1017.4 |
| 20260508101516 | 48 | 71 | 5.0 | 11.0 | 0.00 | 0.00 | 0.00 | 56 | 1017.3 |
| 20260508101459 | 48 | 65 | 5.0 | 9.0 | 0.00 | 0.00 | 0.00 | 56 | 1017.3 |
| 20260508101454 | 48 | 69 | 5.0 | 9.0 | 0.00 | 0.00 | 0.00 | 56 | 1017.3 |
| 20260508101449 | 48 | 63 | 5.0 | 9.0 | 0.00 | 0.00 | 0.00 | 56 | 1017.3 |
| 20260508101439 | 48 | 69 | 5.0 | 9.0 | 0.00 | 0.00 | 0.00 | 56 | 1017.3 |
| 20260508101257 | 48 | 63 | 5.0 | 9.0 | 0.00 | 0.00 | 0.00 | 56 | 1017.3 |
| 20260508100917 | 48 | 67 | 5.0 | 9.0 | 0.00 | 0.00 | 0.00 | 56 | 1017.3 |
| 20260508100816 | 48 | 71 | 5.0 | 9.0 | 0.00 | 0.00 | 0.00 | 56 | 1017.4 |
| 20260508100717 | 48 | 62 | 4.0 | 9.0 | 0.00 | 0.00 | 0.00 | 56 | 1017.3 |
| 20260508100618 | 48 | 78 | 4.0 | 9.0 | 0.00 | 0.00 | 0.00 | 56 | 1017.3 |
| 20260508100513 | 48 | 53 | 4.0 | 11.0 | 0.00 | 0.00 | 0.00 | 56 | 1017.2 |
| 20260508100412 | 48 | 68 | 4.0 | 11.0 | 0.00 | 0.00 | 0.00 | 56 | 1017.2 |
| 20260508100314 | 48 | 51 | 4.0 | 11.0 | 0.00 | 0.00 | 0.00 | 56 | 1017.3 |
| 20260508100213 | 48 | 37 | 4.0 | 11.0 | 0.00 | 0.00 | 0.00 | 56 | 1017.3 |
| 20260508100112 | 48 | 67 | 4.0 | 11.0 | 0.00 | 0.00 | 0.00 | 56 | 1017.2 |
| 20260508100014 | 48 | 58 | 4.0 | 11.0 | 0.00 | 0.00 | 0.00 | 56 | 1017.2 |
| 20260508095913 | 48 | 63 | 4.0 | 11.0 | 0.00 | 0.00 | 0.00 | 56 | 1017.2 |
| 20260508095813 | 48 | 80 | 4.0 | 11.0 | 0.00 | 0.00 | 0.00 | 56 | 1017.2 |
| 20260508095708 | 48 | 54 | 4.0 | 11.0 | 0.00 | 0.00 | 0.00 | 56 | 1017.2 |
| 20260508095641 | 48 | 46 | 4.0 | 10.0 | 0.00 | 0.00 | 0.00 | 57 | 1017.3 |
| 20260508095630 | 48 | 69 | 4.0 | 11.0 | 0.00 | 0.00 | 0.00 | 56 | 1017.2 |
| 20260508095407 | 48 | 77 | 5.0 | 10.0 | 0.00 | 0.00 | 0.00 | 56 | 1017.3 |
| 20260508095307 | 48 | 48 | 5.0 | 10.0 | 0.00 | 0.00 | 0.00 | 56 | 1017.2 |
| 20260508095225 | 48 | 59 | 5.0 | 10.0 | 0.00 | 0.00 | 0.00 | 56 | 1017.2 |
| 20260508095213 | 48 | 61 | 5.0 | 10.0 | 0.00 | 0.00 | 0.00 | 56 | 1017.2 |
| 20260508095148 | 48 | 11 | 5.0 | 10.0 | 0.00 | 0.00 | 0.00 | 57 | 1017.1 |
| 20260508095026 | 48 | 69 | 5.0 | 10.0 | 0.00 | 0.00 | 0.00 | 56 | 1017.2 |
| 20260508094754 | 48 | 66 | 5.0 | 10.0 | 0.00 | 0.00 | 0.00 | 56 | 1017.3 |
| 20260508094656 | 48 | 88 | 5.0 | 10.0 | 0.00 | 0.00 | 0.00 | 56 | 1017.2 |
| 20260508094632 | 48 | 57 | 5.0 | 10.0 | 0.00 | 0.00 | 0.00 | 56 | 1017.1 |
| 20260508094619 | 48 | 59 | 5.0 | 10.0 | 0.00 | 0.00 | 0.00 | 56 | 1017.2 |
| 20260508094356 | 48 | 56 | 5.0 | 10.0 | 0.00 | 0.00 | 0.00 | 57 | 1017.1 |
| 20260508094328 | 48 | 71 | 5.0 | 10.0 | 0.00 | 0.00 | 0.00 | 56 | 1017.0 |
| 20260508094316 | 48 | 18 | 5.0 | 10.0 | 0.00 | 0.00 | 0.00 | 57 | 1017.1 |
| 20260508094054 | 48 | 56 | 5.0 | 10.0 | 0.00 | 0.00 | 0.00 | 56 | 1017.1 |
| 20260508093953 | 48 | 34 | 5.0 | 10.0 | 0.00 | 0.00 | 0.00 | 57 | 1017.1 |
| 20260508093908 | 48 | 67 | 5.0 | 10.0 | 0.00 | 0.00 | 0.00 | 57 | 1017.1 |
| 20260508093903 | 48 | 71 | 5.0 | 10.0 | 0.00 | 0.00 | 0.00 | 57 | 1017.1 |
| 20260508093852 | 48 | 46 | 5.0 | 10.0 | 0.00 | 0.00 | 0.00 | 56 | 1017.2 |
| 20260508093831 | 48 | 59 | 5.0 | 10.0 | 0.00 | 0.00 | 0.00 | 57 | 1017.1 |
| 20260508093451 | 48 | 26 | 5.0 | 10.0 | 0.00 | 0.00 | 0.00 | 57 | 1017.2 |
| 20260508093428 | 48 | 53 | 5.0 | 12.0 | 0.00 | 0.00 | 0.00 | 58 | 1017.2 |
| 20260508093414 | 48 | 60 | 5.0 | 12.0 | 0.00 | 0.00 | 0.00 | 58 | 1017.2 |
| 20260508093235 | 48 | 51 | 5.0 | 12.0 | 0.00 | 0.00 | 0.00 | 58 | 1017.0 |
| 20260508093230 | 48 | 36 | 5.0 | 12.0 | 0.00 | 0.00 | 0.00 | 58 | 1017.1 |
| 20260508093218 | 48 | 28 | 5.0 | 12.0 | 0.00 | 0.00 | 0.00 | 58 | 1017.1 |
| 20260508093031 | 48 | 52 | 5.0 | 12.0 | 0.00 | 0.00 | 0.00 | 58 | 1017.1 |
| 20260508092908 | 48 | 55 | 5.0 | 12.0 | 0.00 | 0.00 | 0.00 | 58 | 1017.1 |
| 20260508092646 | 48 | 59 | 5.0 | 12.0 | 0.00 | 0.00 | 0.00 | 58 | 1017.1 |
| 20260508092540 | 48 | 59 | 5.0 | 12.0 | 0.00 | 0.00 | 0.00 | 58 | 1017.1 |
| 20260508092439 | 48 | 44 | 5.0 | 12.0 | 0.00 | 0.00 | 0.00 | 58 | 1017.0 |
| 20260508092341 | 48 | 60 | 5.0 | 11.0 | 0.00 | 0.00 | 0.00 | 58 | 1017.1 |
| 20260508092239 | 48 | 43 | 5.0 | 11.0 | 0.00 | 0.00 | 0.00 | 58 | 1017.1 |
| 20260508092139 | 48 | 46 | 6.0 | 12.0 | 0.00 | 0.00 | 0.00 | 58 | 1017.1 |
| 20260508092034 | 48 | 36 | 6.0 | 12.0 | 0.00 | 0.00 | 0.00 | 58 | 1017.1 |
| 20260508091932 | 48 | 52 | 6.0 | 12.0 | 0.00 | 0.00 | 0.00 | 57 | 1017.1 |
| 20260508091834 | 48 | 48 | 6.0 | 12.0 | 0.00 | 0.00 | 0.00 | 57 | 1017.0 |
| 20260508091733 | 48 | 61 | 6.0 | 12.0 | 0.00 | 0.00 | 0.00 | 57 | 1017.1 |
| 20260508091633 | 48 | 59 | 6.0 | 12.0 | 0.00 | 0.00 | 0.00 | 57 | 1017.1 |
| 20260508091523 | 48 | 28 | 6.0 | 12.0 | 0.00 | 0.00 | 0.00 | 58 | 1017.0 |
| 20260508091503 | 48 | 57 | 5.0 | 11.0 | 0.00 | 0.00 | 0.00 | 57 | 1017.1 |
| 20260508091458 | 48 | 63 | 5.0 | 11.0 | 0.00 | 0.00 | 0.00 | 58 | 1017.1 |
| 20260508091446 | 48 | 38 | 5.0 | 12.0 | 0.00 | 0.00 | 0.00 | 57 | 1017.1 |
| 20260508091425 | 48 | 61 | 6.0 | 12.0 | 0.00 | 0.00 | 0.00 | 57 | 1017.0 |
| 20260508091259 | 48 | 48 | 5.0 | 11.0 | 0.00 | 0.00 | 0.00 | 58 | 1017.0 |
| 20260508090918 | 48 | 67 | 5.0 | 11.0 | 0.00 | 0.00 | 0.00 | 58 | 1017.0 |
| 20260508090817 | 48 | 65 | 5.0 | 11.0 | 0.00 | 0.00 | 0.00 | 58 | 1017.0 |
| 20260508090717 | 48 | 63 | 5.0 | 11.0 | 0.00 | 0.00 | 0.00 | 58 | 1017.0 |
| 20260508090617 | 48 | 53 | 5.0 | 11.0 | 0.00 | 0.00 | 0.00 | 58 | 1017.0 |
| 20260508090514 | 48 | 63 | 5.0 | 12.0 | 0.00 | 0.00 | 0.00 | 58 | 1017.0 |
| 20260508090414 | 48 | 57 | 5.0 | 12.0 | 0.00 | 0.00 | 0.00 | 57 | 1017.0 |
| 20260508090343 | 48 | 66 | 5.0 | 12.0 | 0.00 | 0.00 | 0.00 | 58 | 1016.9 |
| 20260508090328 | 48 | 53 | 5.0 | 12.0 | 0.00 | 0.00 | 0.00 | 57 | 1017.0 |
| 20260508090313 | 48 | 59 | 5.0 | 12.0 | 0.00 | 0.00 | 0.00 | 57 | 1017.0 |
| 20260508085955 | 48 | 69 | 5.0 | 12.0 | 0.00 | 0.00 | 0.00 | 58 | 1016.9 |
| 20260508085856 | 48 | 53 | 5.0 | 12.0 | 0.00 | 0.00 | 0.00 | 58 | 1017.0 |
| 20260508085757 | 48 | 60 | 5.0 | 12.0 | 0.00 | 0.00 | 0.00 | 57 | 1017.0 |
| 20260508085656 | 48 | 51 | 5.0 | 12.0 | 0.00 | 0.00 | 0.00 | 57 | 1017.0 |
| 20260508085555 | 48 | 61 | 5.0 | 11.0 | 0.00 | 0.00 | 0.00 | 57 | 1017.0 |
| 20260508085449 | 48 | 63 | 5.0 | 11.0 | 0.00 | 0.00 | 0.00 | 57 | 1017.0 |
| 20260508085421 | 48 | 69 | 5.0 | 12.0 | 0.00 | 0.00 | 0.00 | 58 | 1017.0 |
| 20260508085412 | 48 | 38 | 5.0 | 12.0 | 0.00 | 0.00 | 0.00 | 57 | 1017.0 |
| 20260508085150 | 48 | 23 | 5.0 | 12.0 | 0.00 | 0.00 | 0.00 | 58 | 1017.0 |
| 20260508085048 | 48 | 51 | 5.0 | 14.0 | 0.00 | 0.00 | 0.00 | 57 | 1017.0 |
| 20260508084943 | 48 | 67 | 5.0 | 14.0 | 0.00 | 0.00 | 0.00 | 57 | 1017.0 |
| 20260508084842 | 48 | 51 | 5.0 | 14.0 | 0.00 | 0.00 | 0.00 | 57 | 1017.0 |
| 20260508084743 | 48 | 71 | 6.0 | 14.0 | 0.00 | 0.00 | 0.00 | 57 | 1017.0 |
| 20260508084644 | 48 | 71 | 6.0 | 14.0 | 0.00 | 0.00 | 0.00 | 58 | 1017.0 |
| 20260508084543 | 48 | 65 | 6.0 | 14.0 | 0.00 | 0.00 | 0.00 | 57 | 1017.0 |
| 20260508084432 | 48 | 49 | 6.0 | 14.0 | 0.00 | 0.00 | 0.00 | 57 | 1017.0 |
| 20260508084332 | 48 | 49 | 5.0 | 14.0 | 0.00 | 0.00 | 0.00 | 57 | 1017.0 |
| 20260508084232 | 48 | 53 | 5.0 | 14.0 | 0.00 | 0.00 | 0.00 | 57 | 1017.0 |
| 20260508084133 | 48 | 46 | 5.0 | 14.0 | 0.00 | 0.00 | 0.00 | 58 | 1017.0 |
| 20260508084100 | 48 | 58 | 5.0 | 12.0 | 0.00 | 0.00 | 0.00 | 57 | 1017.0 |
| 20260508084050 | 48 | 59 | 5.0 | 12.0 | 0.00 | 0.00 | 0.00 | 58 | 1017.0 |
| 20260508083827 | 48 | 68 | 5.0 | 12.0 | 0.00 | 0.00 | 0.00 | 57 | 1017.0 |
| 20260508083728 | 48 | 27 | 5.0 | 11.0 | 0.00 | 0.00 | 0.00 | 58 | 1016.9 |
| 20260508083626 | 48 | 40 | 5.0 | 11.0 | 0.00 | 0.00 | 0.00 | 57 | 1017.0 |
| 20260508083527 | 48 | 54 | 5.0 | 13.0 | 0.00 | 0.00 | 0.00 | 58 | 1017.0 |
| 20260508083420 | 48 | 63 | 5.0 | 13.0 | 0.00 | 0.00 | 0.00 | 57 | 1017.0 |
| 20260508083354 | 48 | 70 | 5.0 | 13.0 | 0.00 | 0.00 | 0.00 | 57 | 1016.9 |
| 20260508083345 | 48 | 77 | 5.0 | 13.0 | 0.00 | 0.00 | 0.00 | 57 | 1017.0 |
| 20260508083120 | 48 | 53 | 5.0 | 13.0 | 0.00 | 0.00 | 0.00 | 57 | 1016.9 |
| 20260508083021 | 48 | 41 | 5.0 | 13.0 | 0.00 | 0.00 | 0.00 | 57 | 1016.9 |
| 20260508082909 | 48 | 38 | 5.0 | 13.0 | 0.00 | 0.00 | 0.00 | 57 | 1016.9 |
| 20260508082809 | 48 | 58 | 5.0 | 13.0 | 0.00 | 0.00 | 0.00 | 57 | 1016.9 |
| 20260508082708 | 48 | 50 | 5.0 | 13.0 | 0.00 | 0.00 | 0.00 | 57 | 1016.9 |
| 20260508082608 | 48 | 46 | 5.0 | 13.0 | 0.00 | 0.00 | 0.00 | 57 | 1016.9 |
| 20260508082508 | 48 | 34 | 5.0 | 11.0 | 0.00 | 0.00 | 0.00 | 57 | 1016.9 |
| 20260508082406 | 48 | 61 | 5.0 | 10.0 | 0.00 | 0.00 | 0.00 | 58 | 1016.9 |
| 20260508082307 | 48 | 20 | 5.0 | 13.0 | 0.00 | 0.00 | 0.00 | 57 | 1016.8 |
| 20260508082206 | 48 | 18 | 5.0 | 13.0 | 0.00 | 0.00 | 0.00 | 57 | 1016.9 |
| 20260508082104 | 48 | 39 | 5.0 | 13.0 | 0.00 | 0.00 | 0.00 | 57 | 1016.9 |
| 20260508082006 | 48 | 39 | 5.0 | 13.0 | 0.00 | 0.00 | 0.00 | 58 | 1016.8 |
| 20260508081905 | 48 | 47 | 5.0 | 13.0 | 0.00 | 0.00 | 0.00 | 58 | 1016.9 |
| 20260508081804 | 48 | 44 | 5.0 | 13.0 | 0.00 | 0.00 | 0.00 | 57 | 1016.8 |
| 20260508081739 | 48 | 50 | 5.0 | 13.0 | 0.00 | 0.00 | 0.00 | 58 | 1016.8 |
| 20260508081727 | 48 | 21 | 5.0 | 13.0 | 0.00 | 0.00 | 0.00 | 57 | 1016.9 |
| 20260508081504 | 48 | 47 | 5.0 | 13.0 | 0.00 | 0.00 | 0.00 | 57 | 1016.9 |
| 20260508081404 | 48 | 57 | 5.0 | 13.0 | 0.00 | 0.00 | 0.00 | 57 | 1017.0 |
| 20260508081336 | 48 | 59 | 5.0 | 12.0 | 0.00 | 0.00 | 0.00 | 57 | 1017.1 |
| 20260508081325 | 48 | 38 | 5.0 | 12.0 | 0.00 | 0.00 | 0.00 | 58 | 1017.0 |
| 20260508081101 | 49 | 23 | 5.0 | 12.0 | 0.00 | 0.00 | 0.00 | 57 | 1017.0 |
| 20260508081002 | 49 | 50 | 5.0 | 14.0 | 0.00 | 0.00 | 0.00 | 57 | 1017.0 |
| 20260508080902 | 49 | 43 | 5.0 | 14.0 | 0.00 | 0.00 | 0.00 | 58 | 1017.1 |
| 20260508080802 | 49 | 55 | 5.0 | 14.0 | 0.00 | 0.00 | 0.00 | 58 | 1017.1 |
| 20260508080702 | 49 | 59 | 5.0 | 14.0 | 0.00 | 0.00 | 0.00 | 57 | 1017.1 |
| 20260508080602 | 49 | 48 | 5.0 | 14.0 | 0.00 | 0.00 | 0.00 | 57 | 1017.1 |
| 20260508080502 | 49 | 56 | 5.0 | 14.0 | 0.00 | 0.00 | 0.00 | 57 | 1017.1 |
| 20260508080403 | 49 | 57 | 5.0 | 14.0 | 0.00 | 0.00 | 0.00 | 58 | 1017.2 |
| 20260508080300 | 49 | 63 | 5.0 | 14.0 | 0.00 | 0.00 | 0.00 | 57 | 1017.1 |
| 20260508080231 | 49 | 48 | 5.0 | 14.0 | 0.00 | 0.00 | 0.00 | 58 | 1017.1 |
| 20260508080220 | 49 | 55 | 5.0 | 14.0 | 0.00 | 0.00 | 0.00 | 57 | 1017.1 |
| 20260508080000 | 49 | 45 | 5.0 | 12.0 | 0.00 | 0.00 | 0.00 | 57 | 1017.1 |
| 20260508075900 | 49 | 40 | 5.0 | 14.0 | 0.00 | 0.00 | 0.00 | 58 | 1017.2 |
| 20260508075800 | 49 | 32 | 5.0 | 14.0 | 0.00 | 0.00 | 0.00 | 58 | 1017.1 |
| 20260508075658 | 49 | 34 | 6.0 | 14.0 | 0.00 | 0.00 | 0.00 | 57 | 1017.1 |
| 20260508075559 | 49 | 58 | 6.0 | 14.0 | 0.00 | 0.00 | 0.00 | 57 | 1017.1 |
| 20260508075459 | 49 | 66 | 6.0 | 14.0 | 0.00 | 0.00 | 0.00 | 58 | 1017.1 |
| 20260508075358 | 49 | 73 | 5.0 | 14.0 | 0.00 | 0.00 | 0.00 | 58 | 1017.1 |
| 20260508075258 | 49 | 38 | 5.0 | 14.0 | 0.00 | 0.00 | 0.00 | 58 | 1017.2 |
| 20260508075159 | 49 | 43 | 5.0 | 14.0 | 0.00 | 0.00 | 0.00 | 58 | 1017.2 |
| 20260508075118 | 49 | 82 | 5.0 | 14.0 | 0.00 | 0.00 | 0.00 | 58 | 1017.1 |
| 20260508075112 | 49 | 346 | 5.0 | 14.0 | 0.00 | 0.00 | 0.00 | 58 | 1017.2 |
| 20260508075101 | 49 | 55 | 5.0 | 14.0 | 0.00 | 0.00 | 0.00 | 58 | 1017.1 |
| 20260508075039 | 49 | 55 | 5.0 | 14.0 | 0.00 | 0.00 | 0.00 | 59 | 1017.1 |
| 20260508074700 | 49 | 59 | 5.0 | 14.0 | 0.00 | 0.00 | 0.00 | 59 | 1017.1 |
| 20260508074558 | 49 | 14 | 5.0 | 14.0 | 0.00 | 0.00 | 0.00 | 59 | 1017.2 |
| 20260508074459 | 49 | 45 | 5.0 | 14.0 | 0.00 | 0.00 | 0.00 | 59 | 1017.1 |
| 20260508074400 | 49 | 49 | 5.0 | 14.0 | 0.00 | 0.00 | 0.00 | 59 | 1017.0 |
| 20260508074253 | 49 | 55 | 5.0 | 14.0 | 0.00 | 0.00 | 0.00 | 59 | 1017.1 |
| 20260508074152 | 49 | 47 | 5.0 | 14.0 | 0.00 | 0.00 | 0.00 | 60 | 1017.2 |
| 20260508074052 | 49 | 30 | 5.0 | 14.0 | 0.00 | 0.00 | 0.00 | 59 | 1017.2 |
| 20260508073953 | 49 | 67 | 5.0 | 12.0 | 0.00 | 0.00 | 0.00 | 59 | 1017.1 |
| 20260508073924 | 49 | 21 | 5.0 | 12.0 | 0.00 | 0.00 | 0.00 | 58 | 1017.2 |
| 20260508073914 | 49 | 59 | 5.0 | 12.0 | 0.00 | 0.00 | 0.00 | 59 | 1017.2 |
| 20260508073652 | 49 | 38 | 5.0 | 12.0 | 0.00 | 0.00 | 0.00 | 58 | 1017.1 |
| 20260508073553 | 49 | 5 | 5.0 | 12.0 | 0.00 | 0.00 | 0.00 | 58 | 1017.2 |
| 20260508073524 | 49 | 340 | 6.0 | 14.0 | 0.00 | 0.00 | 0.00 | 58 | 1017.1 |
| 20260508073515 | 49 | 45 | 5.0 | 14.0 | 0.00 | 0.00 | 0.00 | 59 | 1017.2 |
| 20260508073254 | 49 | 56 | 6.0 | 14.0 | 0.00 | 0.00 | 0.00 | 59 | 1017.1 |
| 20260508073151 | 49 | 63 | 6.0 | 14.0 | 0.00 | 0.00 | 0.00 | 59 | 1017.1 |
| 20260508073121 | 49 | 34 | 6.0 | 14.0 | 0.00 | 0.00 | 0.00 | 59 | 1017.1 |
| 20260508073111 | 49 | 57 | 6.0 | 14.0 | 0.00 | 0.00 | 0.00 | 58 | 1017.1 |
| 20260508072852 | 49 | 48 | 6.0 | 14.0 | 0.00 | 0.00 | 0.00 | 59 | 1017.1 |
| 20260508072752 | 49 | 50 | 5.0 | 14.0 | 0.00 | 0.01 | 0.00 | 59 | 1017.1 |
| 20260508072651 | 49 | 51 | 5.0 | 14.0 | 0.00 | 0.01 | 0.00 | 58 | 1017.1 |
| 20260508072552 | 49 | 56 | 5.0 | 14.0 | 0.00 | 0.01 | 0.00 | 58 | 1017.1 |
| 20260508072452 | 49 | 51 | 5.0 | 13.0 | 0.00 | 0.01 | 0.00 | 58 | 1017.2 |
| 20260508072352 | 49 | 59 | 5.0 | 13.0 | 0.00 | 0.01 | 0.00 | 58 | 1017.1 |
| 20260508072253 | 49 | 51 | 5.0 | 12.0 | 0.00 | 0.01 | 0.00 | 58 | 1017.2 |
| 20260508072152 | 49 | 33 | 6.0 | 12.0 | 0.00 | 0.01 | 0.00 | 58 | 1017.2 |
| 20260508072053 | 49 | 53 | 6.0 | 13.0 | 0.00 | 0.01 | 0.00 | 58 | 1017.1 |
| 20260508071953 | 49 | 67 | 6.0 | 13.0 | 0.00 | 0.01 | 0.00 | 57 | 1017.1 |
| 20260508071852 | 49 | 40 | 5.0 | 13.0 | 0.00 | 0.01 | 0.00 | 57 | 1017.1 |
| 20260508071752 | 49 | 53 | 6.0 | 13.0 | 0.00 | 0.01 | 0.00 | 57 | 1017.1 |
| 20260508071707 | 49 | 43 | 5.0 | 14.0 | 0.00 | 0.01 | 0.00 | 58 | 1017.1 |
| 20260508071653 | 49 | 48 | 6.0 | 14.0 | 0.00 | 0.01 | 0.00 | 57 | 1017.1 |
| 20260508071646 | 49 | 44 | 6.0 | 14.0 | 0.00 | 0.01 | 0.00 | 59 | 1017.2 |
| 20260508071629 | 49 | 64 | 6.0 | 14.0 | 0.00 | 0.01 | 0.00 | 58 | 1017.2 |
| 20260508071248 | 49 | 53 | 6.0 | 14.0 | 0.00 | 0.01 | 0.00 | 58 | 1017.2 |
| 20260508071147 | 49 | 55 | 5.0 | 14.0 | 0.00 | 0.01 | 0.00 | 58 | 1017.1 |
| 20260508071047 | 49 | 17 | 5.0 | 14.0 | 0.00 | 0.01 | 0.00 | 58 | 1017.1 |
| 20260508070947 | 49 | 69 | 5.0 | 14.0 | 0.00 | 0.01 | 0.00 | 58 | 1017.1 |
| 20260508070841 | 49 | 47 | 5.0 | 14.0 | 0.00 | 0.01 | 0.00 | 58 | 1017.1 |
| 20260508070741 | 49 | 53 | 5.0 | 14.0 | 0.00 | 0.01 | 0.00 | 58 | 1017.2 |
| 20260508070641 | 49 | 333 | 5.0 | 13.0 | 0.00 | 0.01 | 0.00 | 58 | 1017.1 |
| 20260508070540 | 49 | 41 | 5.0 | 13.0 | 0.00 | 0.01 | 0.00 | 58 | 1017.2 |
| 20260508070440 | 49 | 30 | 5.0 | 13.0 | 0.00 | 0.01 | 0.00 | 58 | 1017.2 |
| 20260508070335 | 49 | 42 | 5.0 | 13.0 | 0.00 | 0.01 | 0.00 | 58 | 1017.3 |
| 20260508070235 | 49 | 36 | 5.0 | 13.0 | 0.00 | 0.01 | 0.00 | 58 | 1017.3 |
| 20260508070135 | 49 | 53 | 5.0 | 13.0 | 0.00 | 0.01 | 0.00 | 58 | 1017.2 |
| 20260508070034 | 49 | 24 | 5.0 | 13.0 | 0.00 | 0.01 | 0.00 | 58 | 1017.3 |
| 20260508065935 | 49 | 56 | 5.0 | 13.0 | 0.00 | 0.01 | 0.00 | 59 | 1017.2 |
| 20260508065854 | 49 | 52 | 5.0 | 13.0 | 0.00 | 0.01 | 0.00 | 58 | 1017.2 |
| 20260508065841 | 49 | 39 | 5.0 | 13.0 | 0.00 | 0.01 | 0.00 | 58 | 1017.2 |
| 20260508065653 | 49 | 34 | 5.0 | 13.0 | 0.00 | 0.01 | 0.00 | 58 | 1017.3 |
| 20260508065641 | 49 | 34 | 5.0 | 13.0 | 0.00 | 0.01 | 0.00 | 58 | 1017.3 |
| 20260508065439 | 49 | 42 | 6.0 | 12.0 | 0.00 | 0.01 | 0.00 | 58 | 1017.3 |
| 20260508065427 | 49 | 49 | 5.0 | 13.0 | 0.00 | 0.01 | 0.00 | 58 | 1017.3 |
| 20260508065405 | 49 | 52 | 5.0 | 13.0 | 0.00 | 0.01 | 0.00 | 58 | 1017.4 |
| 20260508065247 | 49 | 54 | 6.0 | 12.0 | 0.00 | 0.01 | 0.00 | 58 | 1017.4 |
| 20260508065238 | 49 | 38 | 5.0 | 13.0 | 0.00 | 0.01 | 0.00 | 58 | 1017.4 |
| 20260508065216 | 49 | 14 | 5.0 | 12.0 | 0.00 | 0.01 | 0.00 | 58 | 1017.4 |
| 20260508065049 | 49 | 56 | 5.0 | 12.0 | 0.00 | 0.01 | 0.00 | 58 | 1017.4 |
| 20260508064708 | 49 | 71 | 6.0 | 12.0 | 0.00 | 0.01 | 0.00 | 58 | 1017.3 |
| 20260508064609 | 49 | 25 | 5.0 | 12.0 | 0.00 | 0.01 | 0.00 | 58 | 1017.4 |
| 20260508064509 | 49 | 36 | 5.0 | 12.0 | 0.00 | 0.01 | 0.00 | 58 | 1017.3 |
| 20260508064437 | 49 | 65 | 5.0 | 12.0 | 0.00 | 0.01 | 0.00 | 58 | 1017.4 |
| 20260508064257 | 49 | 71 | 5.0 | 12.0 | 0.00 | 0.01 | 0.00 | 58 | 1017.3 |
| 20260508064159 | 49 | 50 | 5.0 | 12.0 | 0.00 | 0.01 | 0.00 | 58 | 1017.4 |
| 20260508064059 | 49 | 46 | 5.0 | 12.0 | 0.00 | 0.01 | 0.00 | 59 | 1017.4 |
| 20260508064000 | 49 | 38 | 5.0 | 12.0 | 0.00 | 0.01 | 0.00 | 58 | 1017.5 |
| 20260508063859 | 49 | 15 | 5.0 | 11.0 | 0.00 | 0.01 | 0.00 | 59 | 1017.5 |
| 20260508063754 | 49 | 64 | 5.0 | 11.0 | 0.00 | 0.01 | 0.00 | 58 | 1017.5 |
| 20260508063651 | 49 | 44 | 5.0 | 11.0 | 0.00 | 0.01 | 0.00 | 58 | 1017.5 |
| 20260508063552 | 49 | 44 | 5.0 | 11.0 | 0.00 | 0.01 | 0.00 | 59 | 1017.5 |
| 20260508063545 | 50 | 54 | 5.0 | 13.0 | 0.00 | 0.01 | 0.00 | 59 | 1017.5 |
| 20260508063526 | 49 | 69 | 5.0 | 11.0 | 0.00 | 0.01 | 0.00 | 59 | 1017.4 |
| 20260508063358 | 49 | 34 | 5.0 | 10.0 | 0.00 | 0.01 | 0.00 | 59 | 1017.4 |
| 20260508063333 | 49 | 49 | 5.0 | 13.0 | 0.00 | 0.01 | 0.00 | 59 | 1017.5 |
| 20260508063209 | 50 | 41 | 5.0 | 13.0 | 0.00 | 0.01 | 0.00 | 59 | 1017.5 |
| 20260508062945 | 50 | 54 | 5.0 | 13.0 | 0.00 | 0.01 | 0.00 | 59 | 1017.5 |
| 20260508062847 | 50 | 40 | 6.0 | 13.0 | 0.00 | 0.01 | 0.00 | 58 | 1017.4 |
| 20260508062733 | 50 | 46 | 6.0 | 13.0 | 0.00 | 0.01 | 0.00 | 58 | 1017.4 |
| 20260508062634 | 50 | 41 | 5.0 | 13.0 | 0.00 | 0.01 | 0.00 | 58 | 1017.3 |
| 20260508062533 | 50 | 46 | 6.0 | 13.0 | 0.00 | 0.01 | 0.00 | 58 | 1017.4 |
| 20260508062433 | 50 | 62 | 6.0 | 13.0 | 0.00 | 0.01 | 0.00 | 58 | 1017.4 |
| 20260508062333 | 50 | 38 | 6.0 | 13.0 | 0.00 | 0.01 | 0.00 | 57 | 1017.3 |
| 20260508062300 | 50 | 57 | 6.0 | 13.0 | 0.00 | 0.01 | 0.00 | 59 | 1017.3 |
| 20260508062248 | 50 | 16 | 6.0 | 13.0 | 0.00 | 0.01 | 0.00 | 58 | 1017.4 |
| 20260508062027 | 50 | 77 | 6.0 | 13.0 | 0.00 | 0.01 | 0.00 | 58 | 1017.3 |
| 20260508061927 | 50 | 44 | 6.0 | 12.0 | 0.00 | 0.01 | 0.00 | 58 | 1017.4 |
| 20260508061826 | 50 | 39 | 6.0 | 12.0 | 0.00 | 0.01 | 0.00 | 59 | 1017.4 |
| 20260508061723 | 50 | 44 | 6.0 | 12.0 | 0.00 | 0.01 | 0.00 | 58 | 1017.4 |
| 20260508061622 | 50 | 67 | 6.0 | 14.0 | 0.00 | 0.01 | 0.00 | 58 | 1017.4 |
| 20260508061557 | 50 | 65 | 6.0 | 14.0 | 0.00 | 0.01 | 0.00 | 58 | 1017.4 |
| 20260508061545 | 50 | 59 | 6.0 | 14.0 | 0.00 | 0.01 | 0.00 | 58 | 1017.4 |
| 20260508061321 | 50 | 44 | 6.0 | 14.0 | 0.00 | 0.01 | 0.00 | 58 | 1017.5 |
| 20260508061212 | 50 | 52 | 6.0 | 14.0 | 0.00 | 0.01 | 0.00 | 58 | 1017.4 |
| 20260508061111 | 50 | 41 | 6.0 | 14.0 | 0.00 | 0.01 | 0.00 | 58 | 1017.5 |
| 20260508061047 | 50 | 13 | 6.0 | 14.0 | 0.00 | 0.01 | 0.00 | 58 | 1017.4 |
| 20260508061035 | 50 | 31 | 6.0 | 14.0 | 0.00 | 0.01 | 0.00 | 58 | 1017.4 |
| 20260508060811 | 50 | 50 | 6.0 | 14.0 | 0.00 | 0.01 | 0.00 | 57 | 1017.4 |
| 20260508060759 | 50 | 49 | 6.0 | 14.0 | 0.00 | 0.01 | 0.00 | 58 | 1017.5 |
| 20260508060739 | 50 | 62 | 6.0 | 13.0 | 0.00 | 0.01 | 0.00 | 58 | 1017.4 |
| 20260508060619 | 50 | 68 | 6.0 | 14.0 | 0.00 | 0.01 | 0.00 | 58 | 1017.4 |
| 20260508060608 | 50 | 51 | 6.0 | 13.0 | 0.00 | 0.01 | 0.00 | 58 | 1017.4 |
| 20260508060545 | 50 | 61 | 6.0 | 14.0 | 0.00 | 0.01 | 0.00 | 58 | 1017.5 |
| 20260508060159 | 50 | 64 | 6.0 | 14.0 | 0.00 | 0.01 | 0.00 | 59 | 1017.5 |
| 20260508060100 | 50 | 25 | 6.0 | 14.0 | 0.00 | 0.01 | 0.00 | 58 | 1017.4 |
| 20260508055959 | 50 | 33 | 6.0 | 14.0 | 0.00 | 0.01 | 0.00 | 58 | 1017.5 |
| 20260508055859 | 50 | 32 | 5.0 | 14.0 | 0.00 | 0.01 | 0.00 | 59 | 1017.5 |
| 20260508055758 | 50 | 41 | 6.0 | 14.0 | 0.00 | 0.01 | 0.00 | 58 | 1017.5 |
| 20260508055647 | 50 | 42 | 6.0 | 14.0 | 0.00 | 0.01 | 0.00 | 58 | 1017.5 |
| 20260508055545 | 50 | 37 | 5.0 | 15.0 | 0.00 | 0.01 | 0.00 | 58 | 1017.6 |
| 20260508055445 | 50 | 63 | 5.0 | 15.0 | 0.00 | 0.01 | 0.00 | 58 | 1017.5 |
| 20260508055420 | 50 | 37 | 5.0 | 15.0 | 0.00 | 0.01 | 0.00 | 59 | 1017.5 |
| 20260508055409 | 50 | 46 | 5.0 | 15.0 | 0.00 | 0.01 | 0.00 | 59 | 1017.5 |
| 20260508055210 | 50 | 60 | 5.0 | 15.0 | 0.00 | 0.01 | 0.00 | 58 | 1017.5 |
| 20260508055159 | 50 | 61 | 5.0 | 15.0 | 0.00 | 0.01 | 0.00 | 59 | 1017.5 |
| 20260508054939 | 50 | 40 | 5.0 | 15.0 | 0.00 | 0.01 | 0.00 | 58 | 1017.5 |
| 20260508054839 | 50 | 44 | 5.0 | 15.0 | 0.00 | 0.01 | 0.00 | 58 | 1017.5 |
| 20260508054739 | 50 | 60 | 5.0 | 15.0 | 0.00 | 0.01 | 0.00 | 58 | 1017.6 |
| 20260508054633 | 50 | 26 | 5.0 | 15.0 | 0.00 | 0.01 | 0.00 | 58 | 1017.6 |
| 20260508054532 | 50 | 20 | 5.0 | 14.0 | 0.00 | 0.01 | 0.00 | 58 | 1017.5 |
| 20260508054433 | 50 | 57 | 5.0 | 14.0 | 0.00 | 0.01 | 0.00 | 58 | 1017.5 |
| 20260508054333 | 50 | 58 | 5.0 | 14.0 | 0.00 | 0.01 | 0.00 | 59 | 1017.5 |
| 20260508054233 | 50 | 63 | 5.0 | 14.0 | 0.00 | 0.01 | 0.00 | 58 | 1017.5 |
| 20260508054122 | 50 | 52 | 5.0 | 14.0 | 0.00 | 0.01 | 0.00 | 58 | 1017.5 |
| 20260508054022 | 50 | 36 | 5.0 | 11.0 | 0.00 | 0.01 | 0.00 | 58 | 1017.5 |
| 20260508053922 | 50 | 55 | 5.0 | 11.0 | 0.00 | 0.01 | 0.00 | 58 | 1017.5 |
| 20260508053823 | 50 | 68 | 5.0 | 11.0 | 0.00 | 0.01 | 0.00 | 59 | 1017.6 |
| 20260508053722 | 50 | 37 | 5.0 | 11.0 | 0.00 | 0.01 | 0.00 | 58 | 1017.6 |
| 20260508053617 | 50 | 69 | 5.0 | 11.0 | 0.00 | 0.01 | 0.00 | 58 | 1017.6 |
| 20260508053517 | 50 | 50 | 5.0 | 11.0 | 0.00 | 0.01 | 0.00 | 59 | 1017.6 |
| 20260508053417 | 50 | 60 | 5.0 | 11.0 | 0.00 | 0.01 | 0.00 | 58 | 1017.6 |
| 20260508053317 | 50 | 39 | 5.0 | 11.0 | 0.00 | 0.01 | 0.00 | 59 | 1017.7 |
| 20260508053217 | 50 | 32 | 5.0 | 11.0 | 0.00 | 0.01 | 0.00 | 60 | 1017.6 |
| 20260508053115 | 50 | 51 | 5.0 | 11.0 | 0.00 | 0.01 | 0.00 | 59 | 1017.6 |
| 20260508053016 | 50 | 101 | 5.0 | 11.0 | 0.00 | 0.01 | 0.00 | 59 | 1017.5 |
| 20260508052915 | 50 | 45 | 5.0 | 11.0 | 0.00 | 0.01 | 0.00 | 60 | 1017.6 |
| 20260508052817 | 50 | 21 | 5.0 | 11.0 | 0.00 | 0.01 | 0.00 | 60 | 1017.6 |
| 20260508052751 | 50 | 33 | 5.0 | 11.0 | 0.00 | 0.01 | 0.00 | 59 | 1017.6 |
| 20260508052739 | 50 | 38 | 5.0 | 11.0 | 0.00 | 0.01 | 0.00 | 58 | 1017.6 |
| 20260508052516 | 50 | 36 | 5.0 | 10.0 | 0.00 | 0.01 | 0.00 | 59 | 1017.7 |
| 20260508052441 | 50 | 36 | 5.0 | 11.0 | 0.00 | 0.01 | 0.00 | 60 | 1017.6 |
| 20260508052431 | 50 | 50 | 5.0 | 10.0 | 0.00 | 0.01 | 0.00 | 60 | 1017.6 |
| 20260508052210 | 50 | 355 | 5.0 | 11.0 | 0.00 | 0.01 | 0.00 | 59 | 1017.7 |
| 20260508052110 | 50 | 40 | 5.0 | 11.0 | 0.00 | 0.01 | 0.00 | 60 | 1017.6 |
| 20260508052010 | 50 | 55 | 5.0 | 11.0 | 0.00 | 0.01 | 0.00 | 59 | 1017.7 |
| 20260508051910 | 50 | 22 | 5.0 | 11.0 | 0.00 | 0.01 | 0.00 | 60 | 1017.7 |
| 20260508051812 | 50 | 42 | 4.0 | 11.0 | 0.00 | 0.01 | 0.00 | 59 | 1017.7 |
| 20260508051710 | 50 | 39 | 4.0 | 11.0 | 0.00 | 0.01 | 0.00 | 60 | 1017.7 |
| 20260508051610 | 50 | 346 | 5.0 | 11.0 | 0.00 | 0.01 | 0.00 | 59 | 1017.7 |
| 20260508051509 | 50 | 65 | 4.0 | 11.0 | 0.00 | 0.01 | 0.00 | 59 | 1017.9 |
| 20260508051409 | 50 | 59 | 4.0 | 11.0 | 0.00 | 0.01 | 0.00 | 59 | 1017.8 |
| 20260508051310 | 50 | 65 | 4.0 | 11.0 | 0.00 | 0.01 | 0.00 | 59 | 1017.7 |
| 20260508051210 | 50 | 34 | 4.0 | 11.0 | 0.00 | 0.01 | 0.00 | 60 | 1017.8 |
| 20260508051111 | 50 | 20 | 4.0 | 11.0 | 0.00 | 0.01 | 0.00 | 59 | 1017.7 |
| 20260508051011 | 51 | 5 | 4.0 | 11.0 | 0.00 | 0.01 | 0.00 | 60 | 1017.7 |
| 20260508050907 | 51 | 52 | 4.0 | 11.0 | 0.00 | 0.01 | 0.00 | 59 | 1017.7 |
| 20260508050809 | 51 | 55 | 5.0 | 11.0 | 0.00 | 0.01 | 0.00 | 59 | 1017.6 |
| 20260508050705 | 51 | 23 | 5.0 | 11.0 | 0.00 | 0.01 | 0.00 | 59 | 1017.7 |
| 20260508050603 | 51 | 69 | 5.0 | 11.0 | 0.00 | 0.02 | 0.00 | 60 | 1017.7 |
| 20260508050504 | 51 | 42 | 5.0 | 10.0 | 0.00 | 0.02 | 0.00 | 60 | 1017.7 |
| 20260508050404 | 51 | 96 | 5.0 | 10.0 | 0.00 | 0.02 | 0.00 | 59 | 1017.8 |
| 20260508050305 | 51 | 63 | 5.0 | 10.0 | 0.00 | 0.02 | 0.00 | 59 | 1017.8 |
| 20260508050238 | 51 | 32 | 5.0 | 10.0 | 0.00 | 0.02 | 0.00 | 59 | 1017.7 |
| 20260508050226 | 51 | 43 | 5.0 | 10.0 | 0.00 | 0.02 | 0.00 | 59 | 1017.7 |
| 20260508050003 | 51 | 51 | 5.0 | 10.0 | 0.00 | 0.02 | 0.00 | 59 | 1017.7 |
| 20260508045903 | 51 | 21 | 5.0 | 10.0 | 0.00 | 0.02 | 0.02 | 60 | 1017.7 |
| 20260508045845 | 51 | 63 | 5.0 | 10.0 | 0.00 | 0.02 | 0.02 | 60 | 1017.6 |
| 20260508045839 | 51 | 56 | 5.0 | 10.0 | 0.00 | 0.02 | 0.02 | 60 | 1017.7 |
| 20260508045834 | 51 | 57 | 5.0 | 10.0 | 0.00 | 0.02 | 0.02 | 60 | 1017.7 |
| 20260508045824 | 51 | 55 | 5.0 | 10.0 | 0.00 | 0.02 | 0.02 | 60 | 1017.7 |
| 20260508045643 | 51 | 62 | 5.0 | 10.0 | 0.00 | 0.02 | 0.02 | 59 | 1017.7 |
| 20260508045307 | 51 | 61 | 5.0 | 12.0 | 0.00 | 0.02 | 0.02 | 60 | 1017.7 |
| 20260508045203 | 51 | 39 | 5.0 | 12.0 | 0.00 | 0.02 | 0.02 | 60 | 1017.8 |
| 20260508045104 | 51 | 58 | 5.0 | 12.0 | 0.00 | 0.02 | 0.02 | 60 | 1017.8 |
| 20260508045001 | 51 | 49 | 5.0 | 12.0 | 0.00 | 0.02 | 0.02 | 60 | 1017.8 |
| 20260508044931 | 51 | 60 | 5.0 | 12.0 | 0.00 | 0.02 | 0.02 | 60 | 1017.8 |
| 20260508044922 | 51 | 60 | 5.0 | 12.0 | 0.00 | 0.02 | 0.02 | 60 | 1017.8 |
| 20260508044701 | 51 | 35 | 5.0 | 12.0 | 0.00 | 0.02 | 0.02 | 60 | 1017.8 |
| 20260508044601 | 51 | 51 | 5.0 | 12.0 | 0.00 | 0.02 | 0.02 | 60 | 1017.8 |
| 20260508044501 | 51 | 38 | 5.0 | 12.0 | 0.00 | 0.02 | 0.02 | 60 | 1017.9 |
| 20260508044401 | 51 | 41 | 5.0 | 12.0 | 0.00 | 0.02 | 0.02 | 61 | 1017.9 |
| 20260508044300 | 51 | 65 | 5.0 | 10.0 | 0.00 | 0.02 | 0.02 | 61 | 1017.9 |
| 20260508044159 | 51 | 36 | 5.0 | 10.0 | 0.00 | 0.02 | 0.02 | 61 | 1017.9 |
| 20260508044101 | 51 | 60 | 5.0 | 11.0 | 0.00 | 0.02 | 0.02 | 61 | 1017.9 |
| 20260508044034 | 51 | 5 | 5.0 | 11.0 | 0.00 | 0.02 | 0.02 | 62 | 1017.9 |
| 20260508044022 | 51 | 61 | 5.0 | 11.0 | 0.00 | 0.02 | 0.02 | 61 | 1017.9 |
| 20260508043827 | 51 | 42 | 4.0 | 11.0 | 0.00 | 0.02 | 0.02 | 61 | 1017.9 |
| 20260508043815 | 51 | 53 | 5.0 | 11.0 | 0.00 | 0.02 | 0.02 | 61 | 1017.9 |
| 20260508043554 | 51 | 72 | 5.0 | 11.0 | 0.00 | 0.02 | 0.02 | 62 | 1017.9 |
| 20260508043454 | 51 | 52 | 5.0 | 11.0 | 0.00 | 0.02 | 0.02 | 62 | 1017.9 |
| 20260508043353 | 51 | 61 | 5.0 | 11.0 | 0.00 | 0.02 | 0.02 | 62 | 1017.9 |
| 20260508043250 | 51 | 59 | 5.0 | 11.0 | 0.00 | 0.02 | 0.02 | 62 | 1017.8 |
| 20260508043208 | 51 | 55 | 5.0 | 11.0 | 0.00 | 0.02 | 0.02 | 63 | 1017.9 |
| 20260508043204 | 51 | 50 | 5.0 | 10.0 | 0.00 | 0.02 | 0.02 | 62 | 1017.9 |
| 20260508043152 | 51 | 24 | 5.0 | 11.0 | 0.00 | 0.02 | 0.02 | 62 | 1017.9 |
| 20260508043130 | 51 | 55 | 5.0 | 11.0 | 0.00 | 0.02 | 0.02 | 62 | 1017.9 |
| 20260508042813 | 51 | 29 | 5.0 | 11.0 | 0.00 | 0.02 | 0.02 | 63 | 1017.9 |
| 20260508042802 | 51 | 10 | 5.0 | 11.0 | 0.00 | 0.02 | 0.02 | 62 | 1017.9 |
| 20260508042542 | 51 | 69 | 5.0 | 11.0 | 0.00 | 0.02 | 0.02 | 62 | 1017.9 |
| 20260508042443 | 51 | 60 | 5.0 | 12.0 | 0.00 | 0.02 | 0.02 | 62 | 1017.9 |
| 20260508042419 | 51 | 47 | 5.0 | 12.0 | 0.00 | 0.02 | 0.02 | 61 | 1017.8 |
| 20260508042404 | 51 | 60 | 5.0 | 12.0 | 0.00 | 0.02 | 0.02 | 62 | 1017.9 |
| 20260508042144 | 51 | 39 | 5.0 | 12.0 | 0.00 | 0.02 | 0.02 | 62 | 1017.9 |
| 20260508042042 | 51 | 45 | 5.0 | 12.0 | 0.00 | 0.02 | 0.02 | 61 | 1017.9 |
| 20260508041937 | 51 | 26 | 5.0 | 12.0 | 0.00 | 0.02 | 0.02 | 62 | 1017.9 |
| 20260508041837 | 51 | 16 | 5.0 | 12.0 | 0.00 | 0.02 | 0.02 | 62 | 1017.9 |
| 20260508041736 | 51 | 63 | 5.0 | 12.0 | 0.00 | 0.02 | 0.02 | 62 | 1017.9 |
| 20260508041715 | 51 | 25 | 5.0 | 12.0 | 0.00 | 0.02 | 0.02 | 62 | 1017.9 |
| 20260508041700 | 51 | 48 | 5.0 | 12.0 | 0.00 | 0.02 | 0.02 | 62 | 1017.9 |
| 20260508041511 | 51 | 63 | 6.0 | 12.0 | 0.00 | 0.02 | 0.02 | 62 | 1017.9 |
| 20260508041500 | 51 | 38 | 5.0 | 12.0 | 0.00 | 0.02 | 0.02 | 62 | 1017.9 |
| 20260508041237 | 51 | 36 | 6.0 | 12.0 | 0.00 | 0.02 | 0.02 | 62 | 1017.8 |
| 20260508041136 | 51 | 13 | 6.0 | 12.0 | 0.00 | 0.02 | 0.02 | 62 | 1017.8 |
| 20260508041037 | 51 | 19 | 6.0 | 12.0 | 0.00 | 0.02 | 0.02 | 62 | 1017.8 |
| 20260508040936 | 51 | 55 | 6.0 | 12.0 | 0.00 | 0.02 | 0.02 | 62 | 1017.8 |
| 20260508040838 | 51 | 48 | 6.0 | 13.0 | 0.00 | 0.02 | 0.02 | 62 | 1017.9 |
| 20260508040737 | 51 | 32 | 6.0 | 13.0 | 0.00 | 0.02 | 0.02 | 62 | 1017.7 |
| 20260508040711 | 51 | 30 | 5.0 | 13.0 | 0.00 | 0.02 | 0.02 | 63 | 1017.9 |
| 20260508040659 | 51 | 51 | 6.0 | 13.0 | 0.00 | 0.02 | 0.02 | 62 | 1017.8 |
| 20260508040437 | 51 | 46 | 6.0 | 13.0 | 0.00 | 0.02 | 0.02 | 62 | 1017.8 |
| 20260508040412 | 51 | 0 | 6.0 | 13.0 | 0.00 | 0.02 | 0.02 | 62 | 1017.9 |
| 20260508040359 | 51 | 62 | 6.0 | 13.0 | 0.00 | 0.02 | 0.02 | 63 | 1017.9 |
| 20260508040133 | 51 | 76 | 6.0 | 13.0 | 0.00 | 0.02 | 0.02 | 63 | 1017.8 |
| 20260508040032 | 51 | 56 | 6.0 | 13.0 | 0.00 | 0.02 | 0.02 | 63 | 1017.9 |
| 20260508035932 | 51 | 49 | 6.0 | 12.0 | 0.00 | 0.02 | 0.02 | 63 | 1017.8 |
| 20260508035832 | 51 | 109 | 6.0 | 12.0 | 0.00 | 0.02 | 0.02 | 63 | 1017.7 |
| 20260508035733 | 51 | 59 | 5.0 | 12.0 | 0.00 | 0.02 | 0.02 | 63 | 1017.7 |
| 20260508035634 | 51 | 16 | 5.0 | 12.0 | 0.00 | 0.02 | 0.02 | 63 | 1017.7 |
| 20260508035534 | 51 | 15 | 5.0 | 12.0 | 0.00 | 0.02 | 0.02 | 62 | 1017.7 |
| 20260508035521 | 51 | 36 | 5.0 | 12.0 | 0.00 | 0.02 | 0.02 | 63 | 1017.7 |
| 20260508035504 | 51 | 37 | 5.0 | 12.0 | 0.00 | 0.02 | 0.02 | 63 | 1017.7 |
| 20260508035230 | 51 | 20 | 5.0 | 12.0 | 0.00 | 0.02 | 0.02 | 62 | 1017.7 |
| 20260508035129 | 51 | 49 | 5.0 | 12.0 | 0.00 | 0.02 | 0.02 | 63 | 1017.8 |
| 20260508035028 | 51 | 63 | 5.0 | 12.0 | 0.00 | 0.02 | 0.02 | 62 | 1017.7 |
| 20260508034929 | 51 | 21 | 5.0 | 13.0 | 0.00 | 0.02 | 0.02 | 62 | 1017.7 |
| 20260508034829 | 51 | 47 | 5.0 | 13.0 | 0.00 | 0.02 | 0.02 | 62 | 1017.8 |
| 20260508034730 | 51 | 29 | 5.0 | 13.0 | 0.00 | 0.02 | 0.02 | 62 | 1017.8 |
| 20260508034628 | 51 | 29 | 6.0 | 13.0 | 0.00 | 0.02 | 0.02 | 62 | 1017.8 |
| 20260508034528 | 51 | 56 | 6.0 | 13.0 | 0.00 | 0.02 | 0.02 | 62 | 1017.8 |
| 20260508034429 | 51 | 63 | 6.0 | 13.0 | 0.00 | 0.02 | 0.02 | 62 | 1017.9 |
| 20260508034400 | 51 | 71 | 6.0 | 13.0 | 0.00 | 0.02 | 0.02 | 62 | 1017.9 |
| 20260508034349 | 51 | 55 | 6.0 | 13.0 | 0.00 | 0.02 | 0.02 | 62 | 1017.9 |
| 20260508034128 | 51 | 47 | 6.0 | 13.0 | 0.00 | 0.02 | 0.02 | 62 | 1017.9 |
| 20260508034028 | 51 | 17 | 6.0 | 13.0 | 0.00 | 0.02 | 0.02 | 62 | 1017.9 |
| 20260508033929 | 51 | 9 | 6.0 | 12.0 | 0.00 | 0.02 | 0.02 | 62 | 1017.9 |
| 20260508033828 | 51 | 50 | 5.0 | 12.0 | 0.00 | 0.02 | 0.02 | 62 | 1017.8 |
| 20260508033728 | 51 | 49 | 5.0 | 12.0 | 0.00 | 0.02 | 0.02 | 62 | 1017.7 |
| 20260508033629 | 51 | 17 | 5.0 | 12.0 | 0.00 | 0.02 | 0.02 | 62 | 1017.8 |
| 20260508033530 | 51 | 19 | 5.0 | 12.0 | 0.00 | 0.02 | 0.02 | 62 | 1017.7 |
| 20260508033429 | 51 | 33 | 5.0 | 12.0 | 0.00 | 0.02 | 0.02 | 63 | 1017.8 |
| 20260508033329 | 51 | 38 | 5.0 | 12.0 | 0.00 | 0.02 | 0.02 | 63 | 1017.8 |
| 20260508033229 | 51 | 40 | 5.0 | 12.0 | 0.00 | 0.02 | 0.02 | 63 | 1017.9 |
| 20260508033128 | 51 | 342 | 5.0 | 12.0 | 0.00 | 0.02 | 0.02 | 62 | 1017.8 |
| 20260508033030 | 51 | 0 | 5.0 | 12.0 | 0.00 | 0.02 | 0.02 | 63 | 1017.8 |
| 20260508032930 | 51 | 34 | 5.0 | 12.0 | 0.00 | 0.02 | 0.02 | 63 | 1017.8 |
| 20260508032902 | 51 | 16 | 5.0 | 12.0 | 0.00 | 0.02 | 0.02 | 63 | 1017.9 |
| 20260508032848 | 51 | 43 | 5.0 | 12.0 | 0.00 | 0.02 | 0.02 | 63 | 1017.8 |
| 20260508032626 | 51 | 26 | 5.0 | 11.0 | 0.00 | 0.02 | 0.02 | 63 | 1017.7 |
| 20260508032524 | 51 | 20 | 5.0 | 11.0 | 0.00 | 0.02 | 0.02 | 63 | 1017.8 |
| 20260508032425 | 51 | 70 | 5.0 | 11.0 | 0.00 | 0.02 | 0.02 | 63 | 1017.7 |
| 20260508032326 | 51 | 0 | 5.0 | 11.0 | 0.00 | 0.02 | 0.02 | 63 | 1017.7 |
| 20260508032225 | 51 | 5 | 5.0 | 10.0 | 0.00 | 0.02 | 0.02 | 63 | 1017.8 |
| 20260508032121 | 51 | 28 | 5.0 | 10.0 | 0.00 | 0.02 | 0.02 | 64 | 1017.7 |
| 20260508032022 | 51 | 5 | 5.0 | 10.0 | 0.00 | 0.02 | 0.02 | 64 | 1017.7 |
| 20260508031954 | 51 | 51 | 5.0 | 10.0 | 0.00 | 0.02 | 0.02 | 63 | 1017.6 |
| 20260508031943 | 51 | 26 | 5.0 | 10.0 | 0.00 | 0.02 | 0.02 | 63 | 1017.7 |
| 20260508031720 | 52 | 26 | 5.0 | 10.0 | 0.00 | 0.02 | 0.02 | 64 | 1017.5 |
| 20260508031621 | 52 | 49 | 5.0 | 10.0 | 0.00 | 0.02 | 0.02 | 63 | 1017.6 |
| 20260508031551 | 52 | 64 | 5.0 | 10.0 | 0.00 | 0.02 | 0.02 | 63 | 1017.7 |
| 20260508031542 | 52 | 61 | 5.0 | 10.0 | 0.00 | 0.02 | 0.02 | 63 | 1017.5 |
| 20260508031322 | 52 | 50 | 5.0 | 10.0 | 0.00 | 0.02 | 0.02 | 63 | 1017.5 |
| 20260508031220 | 51 | 39 | 5.0 | 10.0 | 0.00 | 0.02 | 0.02 | 63 | 1017.5 |
| 20260508031129 | 51 | 22 | 5.0 | 10.0 | 0.00 | 0.02 | 0.02 | 64 | 1017.5 |
| 20260508031119 | 51 | 26 | 5.0 | 10.0 | 0.00 | 0.02 | 0.02 | 63 | 1017.6 |
| 20260508031057 | 52 | 59 | 5.0 | 10.0 | 0.00 | 0.02 | 0.02 | 63 | 1017.5 |
| 20260508030933 | 51 | 18 | 5.0 | 10.0 | 0.00 | 0.02 | 0.02 | 63 | 1017.5 |
| 20260508030743 | 52 | 82 | 5.0 | 9.0 | 0.00 | 0.02 | 0.02 | 64 | 1017.4 |
| 20260508030732 | 51 | 44 | 5.0 | 10.0 | 0.00 | 0.02 | 0.02 | 64 | 1017.4 |
| 20260508030509 | 52 | 62 | 5.0 | 9.0 | 0.00 | 0.02 | 0.02 | 64 | 1017.4 |
| 20260508030404 | 52 | 32 | 5.0 | 9.0 | 0.00 | 0.02 | 0.02 | 63 | 1017.4 |
| 20260508030304 | 52 | 25 | 5.0 | 9.0 | 0.00 | 0.02 | 0.02 | 63 | 1017.4 |
| 20260508030204 | 52 | 9 | 5.0 | 9.0 | 0.00 | 0.02 | 0.02 | 64 | 1017.5 |
| 20260508030137 | 51 | 51 | 4.0 | 9.0 | 0.00 | 0.02 | 0.02 | 64 | 1017.5 |
| 20260508030126 | 51 | 38 | 5.0 | 9.0 | 0.00 | 0.02 | 0.02 | 64 | 1017.5 |
| 20260508025934 | 52 | 38 | 4.0 | 10.0 | 0.00 | 0.02 | 0.02 | 64 | 1017.5 |
| 20260508025920 | 52 | 13 | 4.0 | 9.0 | 0.00 | 0.02 | 0.02 | 64 | 1017.6 |
| 20260508025733 | 52 | 57 | 5.0 | 10.0 | 0.00 | 0.02 | 0.02 | 64 | 1017.6 |
| 20260508025721 | 52 | 346 | 4.0 | 10.0 | 0.00 | 0.02 | 0.02 | 64 | 1017.6 |
| 20260508025456 | 52 | 9 | 5.0 | 10.0 | 0.00 | 0.02 | 0.02 | 64 | 1017.5 |
| 20260508025344 | 52 | 13 | 5.0 | 10.0 | 0.00 | 0.02 | 0.02 | 64 | 1017.5 |
| 20260508025244 | 52 | 53 | 4.0 | 10.0 | 0.00 | 0.02 | 0.02 | 63 | 1017.5 |
| 20260508025220 | 52 | 36 | 5.0 | 11.0 | 0.00 | 0.02 | 0.02 | 64 | 1017.5 |
| 20260508025207 | 52 | 24 | 5.0 | 10.0 | 0.00 | 0.02 | 0.02 | 64 | 1017.6 |
| 20260508024943 | 52 | 44 | 5.0 | 11.0 | 0.00 | 0.02 | 0.02 | 63 | 1017.5 |
| 20260508024928 | 52 | 41 | 4.0 | 11.0 | 0.00 | 0.02 | 0.02 | 63 | 1017.5 |
| 20260508024923 | 52 | 55 | 4.0 | 11.0 | 0.00 | 0.02 | 0.02 | 63 | 1017.5 |
| 20260508024918 | 52 | 5 | 4.0 | 11.0 | 0.00 | 0.02 | 0.02 | 63 | 1017.6 |
| 20260508024904 | 52 | 32 | 5.0 | 11.0 | 0.00 | 0.02 | 0.02 | 63 | 1017.6 |
| 20260508024717 | 52 | 29 | 4.0 | 11.0 | 0.00 | 0.02 | 0.02 | 63 | 1017.5 |
| 20260508024331 | 52 | 76 | 4.0 | 11.0 | 0.00 | 0.02 | 0.02 | 63 | 1017.5 |
| 20260508024230 | 52 | 49 | 4.0 | 11.0 | 0.00 | 0.02 | 0.02 | 63 | 1017.6 |
| 20260508024204 | 52 | 9 | 4.0 | 8.0 | 0.00 | 0.02 | 0.02 | 63 | 1017.6 |
| 20260508024153 | 52 | 355 | 4.0 | 10.0 | 0.00 | 0.02 | 0.02 | 63 | 1017.6 |
| 20260508023930 | 52 | 34 | 4.0 | 8.0 | 0.00 | 0.02 | 0.02 | 63 | 1017.6 |
| 20260508023820 | 52 | 0 | 4.0 | 9.0 | 0.00 | 0.02 | 0.02 | 63 | 1017.6 |
| 20260508023720 | 52 | 32 | 4.0 | 9.0 | 0.00 | 0.02 | 0.02 | 64 | 1017.6 |
| 20260508023620 | 52 | 28 | 4.0 | 9.0 | 0.00 | 0.02 | 0.02 | 63 | 1017.6 |
| 20260508023521 | 52 | 54 | 4.0 | 9.0 | 0.00 | 0.02 | 0.02 | 63 | 1017.5 |
| 20260508023421 | 52 | 59 | 4.0 | 9.0 | 0.00 | 0.02 | 0.02 | 62 | 1017.6 |
| 20260508023318 | 52 | 35 | 4.0 | 9.0 | 0.00 | 0.02 | 0.02 | 62 | 1017.6 |
| 20260508023249 | 52 | 22 | 4.0 | 9.0 | 0.00 | 0.02 | 0.02 | 63 | 1017.6 |
| 20260508023239 | 52 | 16 | 4.0 | 9.0 | 0.00 | 0.02 | 0.02 | 62 | 1017.6 |
| 20260508023018 | 52 | 30 | 4.0 | 10.0 | 0.00 | 0.02 | 0.02 | 63 | 1017.6 |
| 20260508022915 | 52 | 5 | 5.0 | 10.0 | 0.00 | 0.02 | 0.02 | 63 | 1017.6 |
| 20260508022841 | 52 | 25 | 5.0 | 10.0 | 0.00 | 0.02 | 0.02 | 62 | 1017.5 |
| 20260508022830 | 52 | 65 | 5.0 | 10.0 | 0.00 | 0.02 | 0.02 | 63 | 1017.5 |
| 20260508022607 | 52 | 14 | 5.0 | 10.0 | 0.00 | 0.02 | 0.02 | 62 | 1017.6 |
| 20260508022506 | 52 | 39 | 5.0 | 10.0 | 0.00 | 0.02 | 0.02 | 62 | 1017.5 |
| 20260508022407 | 52 | 78 | 5.0 | 10.0 | 0.00 | 0.02 | 0.02 | 63 | 1017.5 |
| 20260508022252 | 52 | 39 | 5.0 | 11.0 | 0.00 | 0.02 | 0.02 | 62 | 1017.6 |
| 20260508022154 | 52 | 355 | 5.0 | 11.0 | 0.00 | 0.02 | 0.02 | 62 | 1017.6 |
| 20260508022054 | 52 | 20 | 4.0 | 11.0 | 0.00 | 0.02 | 0.02 | 63 | 1017.5 |
| 20260508021952 | 52 | 0 | 4.0 | 11.0 | 0.00 | 0.02 | 0.02 | 63 | 1017.5 |
| 20260508021923 | 52 | 355 | 5.0 | 11.0 | 0.00 | 0.02 | 0.02 | 62 | 1017.5 |
| 20260508021913 | 52 | 40 | 4.0 | 11.0 | 0.00 | 0.02 | 0.02 | 62 | 1017.5 |
| 20260508021650 | 52 | 10 | 4.0 | 11.0 | 0.00 | 0.02 | 0.02 | 62 | 1017.4 |
| 20260508021549 | 52 | 5 | 4.0 | 11.0 | 0.00 | 0.02 | 0.02 | 62 | 1017.4 |
| 20260508021520 | 52 | 45 | 4.0 | 9.0 | 0.00 | 0.02 | 0.02 | 62 | 1017.4 |
| 20260508021509 | 52 | 77 | 4.0 | 11.0 | 0.00 | 0.02 | 0.02 | 62 | 1017.4 |
| 20260508021241 | 52 | 5 | 4.0 | 9.0 | 0.00 | 0.02 | 0.02 | 63 | 1017.4 |
| 20260508021140 | 52 | 82 | 4.0 | 9.0 | 0.00 | 0.02 | 0.02 | 62 | 1017.4 |
| 20260508021040 | 52 | 15 | 4.0 | 9.0 | 0.00 | 0.02 | 0.02 | 63 | 1017.5 |
| 20260508020938 | 52 | 350 | 4.0 | 9.0 | 0.00 | 0.02 | 0.02 | 62 | 1017.5 |
| 20260508020903 | 52 | 5 | 4.0 | 9.0 | 0.00 | 0.02 | 0.02 | 63 | 1017.5 |
| 20260508020853 | 52 | 350 | 4.0 | 9.0 | 0.00 | 0.02 | 0.02 | 62 | 1017.5 |
| 20260508020630 | 52 | 27 | 4.0 | 9.0 | 0.00 | 0.02 | 0.02 | 62 | 1017.4 |
| 20260508020532 | 52 | 34 | 4.0 | 9.0 | 0.00 | 0.02 | 0.02 | 62 | 1017.4 |
| 20260508020432 | 52 | 5 | 4.0 | 9.0 | 0.00 | 0.02 | 0.02 | 62 | 1017.4 |
| 20260508020331 | 52 | 5 | 4.0 | 9.0 | 0.00 | 0.02 | 0.02 | 63 | 1017.4 |
| 20260508020305 | 52 | 17 | 4.0 | 8.0 | 0.00 | 0.02 | 0.02 | 62 | 1017.3 |
| 20260508020253 | 53 | 12 | 4.0 | 8.0 | 0.00 | 0.02 | 0.02 | 63 | 1017.4 |
| 20260508020032 | 52 | 32 | 4.0 | 8.0 | 0.00 | 0.02 | 0.02 | 62 | 1017.4 |
| 20260508020025 | 52 | 35 | 3.0 | 8.0 | 0.00 | 0.02 | 0.02 | 62 | 1017.4 |
| 20260508020020 | 52 | 15 | 3.0 | 8.0 | 0.00 | 0.02 | 0.02 | 62 | 1017.4 |
| 20260508020001 | 52 | 76 | 4.0 | 8.0 | 0.00 | 0.02 | 0.02 | 62 | 1017.4 |
| 20260508015619 | 52 | 22 | 3.0 | 8.0 | 0.00 | 0.02 | 0.02 | 62 | 1017.3 |
| 20260508015519 | 52 | 16 | 3.0 | 8.0 | 0.00 | 0.02 | 0.02 | 62 | 1017.3 |
| 20260508015419 | 52 | 49 | 3.0 | 8.0 | 0.00 | 0.02 | 0.02 | 63 | 1017.4 |
| 20260508015319 | 52 | 5 | 3.0 | 8.0 | 0.00 | 0.02 | 0.02 | 63 | 1017.3 |
| 20260508015215 | 52 | 31 | 3.0 | 8.0 | 0.00 | 0.02 | 0.02 | 63 | 1017.3 |
| 20260508015114 | 52 | 33 | 3.0 | 8.0 | 0.00 | 0.02 | 0.02 | 63 | 1017.4 |
| 20260508015053 | 52 | 11 | 3.0 | 8.0 | 0.00 | 0.02 | 0.02 | 63 | 1017.3 |
| 20260508015041 | 52 | 5 | 3.0 | 8.0 | 0.00 | 0.02 | 0.02 | 63 | 1017.3 |
| 20260508014815 | 52 | 15 | 3.0 | 8.0 | 0.00 | 0.02 | 0.02 | 62 | 1017.3 |
| 20260508014714 | 52 | 347 | 3.0 | 8.0 | 0.00 | 0.02 | 0.02 | 63 | 1017.2 |
| 20260508014615 | 52 | 21 | 3.0 | 8.0 | 0.00 | 0.02 | 0.02 | 62 | 1017.2 |
| 20260508014512 | 52 | 19 | 3.0 | 8.0 | 0.00 | 0.02 | 0.02 | 62 | 1017.2 |
| 20260508014413 | 52 | 19 | 3.0 | 8.0 | 0.00 | 0.02 | 0.02 | 63 | 1017.2 |
| 20260508014313 | 52 | 355 | 3.0 | 8.0 | 0.00 | 0.02 | 0.02 | 63 | 1017.2 |
| 20260508014212 | 52 | 0 | 4.0 | 8.0 | 0.00 | 0.02 | 0.02 | 63 | 1017.2 |
| 20260508014107 | 52 | 11 | 4.0 | 9.0 | 0.00 | 0.02 | 0.02 | 62 | 1017.2 |
| 20260508014007 | 52 | 335 | 4.0 | 9.0 | 0.00 | 0.02 | 0.02 | 62 | 1017.2 |
| 20260508013927 | 53 | 40 | 4.0 | 9.0 | 0.00 | 0.02 | 0.02 | 63 | 1017.2 |
| 20260508013923 | 53 | 22 | 4.0 | 9.0 | 0.00 | 0.02 | 0.02 | 62 | 1017.2 |
| 20260508013911 | 52 | 26 | 4.0 | 9.0 | 0.00 | 0.02 | 0.02 | 62 | 1017.2 |
| 20260508013849 | 52 | 19 | 4.0 | 9.0 | 0.00 | 0.02 | 0.02 | 63 | 1017.2 |
| 20260508013506 | 53 | 25 | 4.0 | 9.0 | 0.00 | 0.02 | 0.02 | 62 | 1017.2 |
| 20260508013406 | 53 | 0 | 4.0 | 9.0 | 0.00 | 0.02 | 0.02 | 62 | 1017.3 |
| 20260508013339 | 52 | 304 | 4.0 | 9.0 | 0.00 | 0.02 | 0.02 | 63 | 1017.3 |
| 20260508013328 | 52 | 0 | 4.0 | 9.0 | 0.00 | 0.02 | 0.02 | 62 | 1017.3 |
| 20260508013104 | 52 | 355 | 3.0 | 8.0 | 0.00 | 0.02 | 0.02 | 63 | 1017.2 |
| 20260508013005 | 52 | 27 | 3.0 | 8.0 | 0.00 | 0.02 | 0.02 | 63 | 1017.3 |
| 20260508012903 | 52 | 346 | 3.0 | 7.0 | 0.00 | 0.02 | 0.02 | 63 | 1017.3 |
| 20260508012802 | 52 | 345 | 3.0 | 7.0 | 0.00 | 0.02 | 0.02 | 63 | 1017.2 |
| 20260508012702 | 52 | 5 | 3.0 | 6.0 | 0.00 | 0.02 | 0.02 | 63 | 1017.2 |
| 20260508012602 | 52 | 0 | 3.0 | 6.0 | 0.00 | 0.02 | 0.02 | 63 | 1017.2 |
| 20260508012502 | 52 | 0 | 3.0 | 6.0 | 0.00 | 0.02 | 0.02 | 63 | 1017.1 |
| 20260508012402 | 52 | 337 | 3.0 | 6.0 | 0.00 | 0.02 | 0.02 | 63 | 1017.2 |
| 20260508012306 | 52 | 35 | 3.0 | 6.0 | 0.00 | 0.02 | 0.02 | 63 | 1017.1 |
| 20260508012203 | 52 | 355 | 3.0 | 6.0 | 0.00 | 0.02 | 0.02 | 63 | 1017.0 |
| 20260508012102 | 52 | 30 | 3.0 | 8.0 | 0.00 | 0.02 | 0.02 | 63 | 1016.9 |
| 20260508012003 | 52 | 0 | 4.0 | 8.0 | 0.00 | 0.02 | 0.02 | 63 | 1016.9 |
| 20260508011902 | 52 | 0 | 4.0 | 9.0 | 0.00 | 0.02 | 0.02 | 63 | 1016.9 |
| 20260508011802 | 52 | 68 | 4.0 | 9.0 | 0.00 | 0.02 | 0.02 | 63 | 1016.9 |
| 20260508011702 | 52 | 13 | 4.0 | 9.0 | 0.00 | 0.02 | 0.02 | 63 | 1016.9 |
| 20260508011632 | 53 | 28 | 3.0 | 9.0 | 0.00 | 0.02 | 0.02 | 63 | 1016.9 |
| 20260508011622 | 53 | 39 | 3.0 | 9.0 | 0.00 | 0.02 | 0.02 | 63 | 1016.9 |
| 20260508011402 | 53 | 333 | 4.0 | 9.0 | 0.00 | 0.02 | 0.02 | 63 | 1016.9 |
| 20260508011302 | 53 | 53 | 3.0 | 9.0 | 0.00 | 0.02 | 0.02 | 63 | 1016.9 |
| 20260508011202 | 53 | 349 | 3.0 | 9.0 | 0.00 | 0.02 | 0.02 | 62 | 1016.9 |
| 20260508011102 | 53 | 5 | 3.0 | 9.0 | 0.00 | 0.02 | 0.02 | 63 | 1016.9 |
| 20260508011002 | 53 | 15 | 3.0 | 9.0 | 0.00 | 0.02 | 0.02 | 63 | 1016.8 |
| 20260508010943 | 53 | 23 | 3.0 | 7.0 | 0.00 | 0.02 | 0.02 | 63 | 1016.9 |
| 20260508010937 | 53 | 32 | 3.0 | 7.0 | 0.00 | 0.02 | 0.02 | 62 | 1016.9 |
| 20260508010933 | 53 | 35 | 3.0 | 7.0 | 0.00 | 0.02 | 0.02 | 62 | 1017.0 |
| 20260508010918 | 53 | 346 | 3.0 | 7.0 | 0.00 | 0.02 | 0.02 | 62 | 1016.9 |
| 20260508010903 | 53 | 32 | 3.0 | 7.0 | 0.00 | 0.02 | 0.02 | 62 | 1016.9 |
| 20260508010615 | 53 | 5 | 3.0 | 7.0 | 0.00 | 0.02 | 0.02 | 62 | 1016.9 |
| 20260508010356 | 53 | 28 | 3.0 | 7.0 | 0.00 | 0.02 | 0.02 | 63 | 1016.8 |
| 20260508010255 | 53 | 5 | 3.0 | 7.0 | 0.00 | 0.02 | 0.02 | 63 | 1016.8 |
| 20260508010156 | 53 | 348 | 3.0 | 6.0 | 0.00 | 0.02 | 0.02 | 62 | 1016.7 |
| 20260508010104 | 53 | 27 | 3.0 | 6.0 | 0.00 | 0.02 | 0.02 | 62 | 1016.7 |
| 20260508010054 | 53 | 5 | 3.0 | 6.0 | 0.00 | 0.02 | 0.02 | 62 | 1016.8 |
| 20260508010047 | 53 | 23 | 3.0 | 6.0 | 0.00 | 0.02 | 0.02 | 62 | 1016.7 |
| 20260508010029 | 53 | 35 | 3.0 | 6.0 | 0.00 | 0.02 | 0.02 | 62 | 1016.8 |
| 20260508005652 | 53 | 30 | 3.0 | 6.0 | 0.00 | 0.02 | 0.02 | 62 | 1016.7 |
| 20260508005623 | 53 | 19 | 3.0 | 6.0 | 0.00 | 0.02 | 0.02 | 62 | 1016.7 |
| 20260508005613 | 53 | 0 | 3.0 | 6.0 | 0.00 | 0.02 | 0.02 | 62 | 1016.5 |
| 20260508005352 | 53 | 355 | 3.0 | 6.0 | 0.00 | 0.02 | 0.02 | 62 | 1016.5 |
| 20260508005252 | 53 | 351 | 3.0 | 6.0 | 0.00 | 0.02 | 0.02 | 62 | 1016.5 |
| 20260508005154 | 53 | 31 | 3.0 | 6.0 | 0.00 | 0.02 | 0.02 | 61 | 1016.5 |
| 20260508005053 | 53 | 342 | 3.0 | 8.0 | 0.00 | 0.02 | 0.02 | 62 | 1016.5 |
| 20260508004953 | 53 | 30 | 3.0 | 8.0 | 0.00 | 0.02 | 0.02 | 62 | 1016.5 |
| 20260508004849 | 53 | 340 | 3.0 | 8.0 | 0.00 | 0.02 | 0.02 | 62 | 1016.5 |
| 20260508004749 | 53 | 21 | 3.0 | 8.0 | 0.00 | 0.02 | 0.02 | 63 | 1016.5 |
| 20260508004651 | 54 | 40 | 3.0 | 8.0 | 0.00 | 0.02 | 0.02 | 63 | 1016.5 |
| 20260508004549 | 54 | 29 | 3.0 | 8.0 | 0.00 | 0.02 | 0.02 | 61 | 1016.7 |
| 20260508004448 | 54 | 24 | 3.0 | 8.0 | 0.00 | 0.02 | 0.02 | 61 | 1016.7 |
| 20260508004345 | 54 | 28 | 3.0 | 8.0 | 0.00 | 0.02 | 0.02 | 60 | 1016.7 |
| 20260508004317 | 54 | 333 | 3.0 | 8.0 | 0.00 | 0.02 | 0.02 | 61 | 1016.7 |
| 20260508004307 | 54 | 0 | 3.0 | 8.0 | 0.00 | 0.02 | 0.02 | 60 | 1016.8 |
| 20260508004043 | 54 | 329 | 4.0 | 8.0 | 0.00 | 0.02 | 0.02 | 61 | 1016.8 |
| 20260508003941 | 54 | 347 | 4.0 | 8.0 | 0.00 | 0.02 | 0.02 | 60 | 1016.7 |
| 20260508003835 | 54 | 355 | 4.0 | 8.0 | 0.00 | 0.02 | 0.02 | 61 | 1016.7 |
| 20260508003735 | 54 | 337 | 4.0 | 8.0 | 0.00 | 0.02 | 0.02 | 61 | 1016.5 |
| 20260508003705 | 54 | 355 | 4.0 | 8.0 | 0.00 | 0.02 | 0.02 | 61 | 1016.5 |
| 20260508003654 | 54 | 336 | 4.0 | 8.0 | 0.00 | 0.02 | 0.02 | 61 | 1016.5 |
| 20260508003431 | 54 | 321 | 4.0 | 8.0 | 0.00 | 0.02 | 0.02 | 61 | 1016.5 |
| 20260508003326 | 54 | 0 | 4.0 | 8.0 | 0.00 | 0.02 | 0.02 | 61 | 1016.4 |
| 20260508003224 | 54 | 5 | 3.0 | 8.0 | 0.00 | 0.02 | 0.02 | 61 | 1016.4 |
| 20260508003126 | 54 | 5 | 3.0 | 7.0 | 0.00 | 0.02 | 0.02 | 61 | 1016.5 |
| 20260508003057 | 54 | 325 | 3.0 | 7.0 | 0.00 | 0.02 | 0.02 | 60 | 1016.4 |
| 20260508003047 | 54 | 350 | 3.0 | 7.0 | 0.00 | 0.02 | 0.02 | 61 | 1016.4 |
| 20260508002822 | 54 | 5 | 3.0 | 7.0 | 0.00 | 0.02 | 0.02 | 60 | 1016.4 |
| 20260508002717 | 54 | 300 | 3.0 | 8.0 | 0.00 | 0.02 | 0.02 | 61 | 1016.4 |
| 20260508002619 | 54 | 338 | 3.0 | 8.0 | 0.00 | 0.02 | 0.02 | 61 | 1016.4 |
| 20260508002518 | 54 | 327 | 3.0 | 8.0 | 0.00 | 0.02 | 0.02 | 60 | 1016.4 |
| 20260508002419 | 54 | 340 | 3.0 | 8.0 | 0.00 | 0.02 | 0.02 | 60 | 1016.4 |
| 20260508002313 | 54 | 11 | 3.0 | 8.0 | 0.00 | 0.02 | 0.02 | 61 | 1016.4 |
| 20260508002213 | 54 | 69 | 3.0 | 8.0 | 0.00 | 0.02 | 0.02 | 61 | 1016.3 |
| 20260508002113 | 54 | 333 | 3.0 | 8.0 | 0.00 | 0.03 | 0.02 | 61 | 1016.4 |
| 20260508002011 | 54 | 24 | 3.0 | 8.0 | 0.00 | 0.03 | 0.02 | 61 | 1016.4 |
| 20260508001911 | 54 | 342 | 3.0 | 8.0 | 0.00 | 0.03 | 0.02 | 60 | 1016.4 |
| 20260508001839 | 55 | 0 | 3.0 | 8.0 | 0.00 | 0.03 | 0.02 | 60 | 1016.4 |
| 20260508001829 | 54 | 347 | 3.0 | 8.0 | 0.00 | 0.03 | 0.02 | 60 | 1016.4 |
| 20260508001651 | 55 | 350 | 3.0 | 7.0 | 0.00 | 0.03 | 0.02 | 60 | 1016.5 |
| 20260508001634 | 55 | 23 | 3.0 | 8.0 | 0.00 | 0.03 | 0.02 | 59 | 1016.4 |
| 20260508001511 | 55 | 20 | 3.0 | 8.0 | 0.00 | 0.03 | 0.02 | 59 | 1016.4 |
| 20260508001504 | 55 | 355 | 3.0 | 7.0 | 0.00 | 0.03 | 0.02 | 60 | 1016.4 |
| 20260508001445 | 55 | 314 | 3.0 | 7.0 | 0.00 | 0.03 | 0.02 | 59 | 1016.4 |
| 20260508001109 | 55 | 318 | 3.0 | 7.0 | 0.00 | 0.03 | 0.02 | 60 | 1016.4 |
| 20260508001045 | 55 | 327 | 3.0 | 7.0 | 0.00 | 0.03 | 0.02 | 59 | 1016.4 |
| 20260508001034 | 55 | 331 | 3.0 | 7.0 | 0.00 | 0.03 | 0.02 | 60 | 1016.3 |
| 20260508000810 | 55 | 311 | 3.0 | 7.0 | 0.00 | 0.03 | 0.02 | 60 | 1016.4 |
| 20260508000733 | 55 | 315 | 2.0 | 7.0 | 0.00 | 0.03 | 0.02 | 59 | 1016.4 |
| 20260508000726 | 55 | 350 | 3.0 | 7.0 | 0.00 | 0.03 | 0.02 | 60 | 1016.4 |
| 20260508000500 | 55 | 317 | 2.0 | 5.0 | 0.00 | 0.03 | 0.02 | 60 | 1016.4 |
| 20260508000419 | 55 | 11 | 2.0 | 7.0 | 0.00 | 0.03 | 0.02 | 60 | 1016.3 |
| 20260508000413 | 55 | 10 | 2.0 | 7.0 | 0.00 | 0.03 | 0.02 | 59 | 1016.3 |
| 20260508000400 | 55 | 320 | 2.0 | 5.0 | 0.00 | 0.03 | 0.02 | 60 | 1016.3 |
| 20260508000338 | 55 | 322 | 2.0 | 5.0 | 0.00 | 0.03 | 0.02 | 59 | 1016.4 |
| 20260507235953 | 55 | 5 | 3.0 | 7.0 | 0.00 | 0.03 | 0.02 | 59 | 1016.3 |
| 20260507235854 | 55 | 323 | 3.0 | 7.0 | 0.00 | 0.03 | 0.02 | 59 | 1016.3 |
| 20260507235753 | 55 | 31 | 3.0 | 7.0 | 0.00 | 0.03 | 0.02 | 59 | 1016.3 |
| 20260507235655 | 55 | 346 | 3.0 | 7.0 | 0.00 | 0.03 | 0.02 | 59 | 1016.3 |
| 20260507235552 | 55 | 13 | 3.0 | 7.0 | 0.00 | 0.03 | 0.02 | 59 | 1016.3 |
| 20260507235452 | 55 | 337 | 3.0 | 7.0 | 0.00 | 0.03 | 0.02 | 59 | 1016.3 |
| 20260507235353 | 55 | 328 | 3.0 | 7.0 | 0.00 | 0.03 | 0.02 | 58 | 1016.3 |
| 20260507235319 | 56 | 300 | 3.0 | 7.0 | 0.00 | 0.03 | 0.02 | 58 | 1016.3 |
| 20260507235309 | 56 | 22 | 3.0 | 7.0 | 0.00 | 0.03 | 0.02 | 58 | 1016.3 |
| 20260507235037 | 56 | 294 | 3.0 | 7.0 | 0.00 | 0.03 | 0.02 | 59 | 1016.2 |
| 20260507234934 | 56 | 333 | 3.0 | 6.0 | 0.00 | 0.03 | 0.02 | 58 | 1016.2 |
| 20260507234909 | 56 | 22 | 3.0 | 8.0 | 0.00 | 0.03 | 0.02 | 58 | 1016.1 |
| 20260507234858 | 56 | 333 | 3.0 | 6.0 | 0.00 | 0.03 | 0.02 | 58 | 1016.1 |
| 20260507234635 | 56 | 319 | 3.0 | 8.0 | 0.00 | 0.03 | 0.02 | 58 | 1016.1 |
| 20260507234602 | 56 | 269 | 3.0 | 8.0 | 0.00 | 0.03 | 0.02 | 58 | 1016.1 |
| 20260507234551 | 56 | 325 | 3.0 | 8.0 | 0.00 | 0.03 | 0.02 | 57 | 1016.1 |
| 20260507234329 | 56 | 336 | 3.0 | 8.0 | 0.00 | 0.03 | 0.02 | 57 | 1016.2 |
| 20260507234302 | 56 | 321 | 3.0 | 8.0 | 0.00 | 0.03 | 0.02 | 57 | 1016.1 |
| 20260507234252 | 56 | 315 | 3.0 | 8.0 | 0.00 | 0.03 | 0.02 | 58 | 1016.2 |
| 20260507234026 | 56 | 317 | 3.0 | 8.0 | 0.00 | 0.03 | 0.02 | 56 | 1016.2 |
| 20260507233927 | 56 | 288 | 3.0 | 8.0 | 0.00 | 0.03 | 0.02 | 56 | 1016.1 |
| 20260507233823 | 56 | 300 | 3.0 | 8.0 | 0.00 | 0.03 | 0.02 | 56 | 1016.0 |
| 20260507233725 | 56 | 327 | 3.0 | 9.0 | 0.00 | 0.04 | 0.02 | 56 | 1016.0 |
| 20260507233622 | 56 | 323 | 3.0 | 9.0 | 0.00 | 0.04 | 0.02 | 56 | 1016.0 |
| 20260507233518 | 56 | 317 | 3.0 | 9.0 | 0.00 | 0.04 | 0.02 | 56 | 1015.9 |
| 20260507233417 | 57 | 306 | 3.0 | 9.0 | 0.00 | 0.04 | 0.02 | 56 | 1015.9 |
| 20260507233314 | 57 | 336 | 3.0 | 9.0 | 0.00 | 0.04 | 0.02 | 56 | 1015.9 |
| 20260507233214 | 57 | 340 | 3.0 | 9.0 | 0.00 | 0.04 | 0.02 | 55 | 1015.8 |
| 20260507233113 | 57 | 340 | 3.0 | 9.0 | 0.00 | 0.04 | 0.02 | 55 | 1015.9 |
| 20260507233009 | 57 | 12 | 3.0 | 9.0 | 0.00 | 0.04 | 0.02 | 55 | 1015.8 |
| 20260507232939 | 57 | 346 | 3.0 | 10.0 | 0.00 | 0.04 | 0.02 | 55 | 1015.9 |
| 20260507232930 | 57 | 69 | 3.0 | 9.0 | 0.00 | 0.04 | 0.02 | 54 | 1015.9 |
| 20260507232708 | 57 | 19 | 3.0 | 10.0 | 0.00 | 0.04 | 0.02 | 55 | 1015.9 |
| 20260507232606 | 57 | 19 | 4.0 | 10.0 | 0.00 | 0.04 | 0.02 | 55 | 1015.9 |
| 20260507232459 | 57 | 240 | 4.0 | 10.0 | 0.00 | 0.04 | 0.02 | 54 | 1016.0 |
| 20260507232401 | 57 | 288 | 4.0 | 10.0 | 0.00 | 0.04 | 0.02 | 53 | 1015.9 |
| 20260507232301 | 58 | 328 | 4.0 | 10.0 | 0.00 | 0.04 | 0.02 | 55 | 1016.0 |
| 20260507232201 | 58 | 0 | 4.0 | 10.0 | 0.00 | 0.04 | 0.02 | 54 | 1015.9 |
| 20260507232100 | 58 | 304 | 4.0 | 10.0 | 0.00 | 0.04 | 0.02 | 54 | 1016.0 |
| 20260507231948 | 58 | 323 | 4.0 | 10.0 | 0.00 | 0.04 | 0.02 | 53 | 1015.9 |
| 20260507231919 | 58 | 322 | 4.0 | 10.0 | 0.00 | 0.04 | 0.02 | 53 | 1015.9 |
| 20260507231910 | 58 | 280 | 4.0 | 10.0 | 0.00 | 0.04 | 0.02 | 53 | 1015.9 |
| 20260507231649 | 58 | 273 | 4.0 | 10.0 | 0.00 | 0.04 | 0.02 | 53 | 1015.9 |
| 20260507231546 | 58 | 296 | 4.0 | 10.0 | 0.00 | 0.04 | 0.02 | 53 | 1015.9 |
| 20260507231441 | 58 | 333 | 4.0 | 10.0 | 0.00 | 0.04 | 0.02 | 53 | 1015.9 |
| 20260507231412 | 58 | 329 | 5.0 | 12.0 | 0.00 | 0.04 | 0.02 | 54 | 1015.9 |
| 20260507231403 | 58 | 355 | 4.0 | 12.0 | 0.00 | 0.04 | 0.02 | 54 | 1016.0 |
| 20260507231143 | 58 | 348 | 5.0 | 12.0 | 0.00 | 0.04 | 0.02 | 54 | 1015.9 |
| 20260507231042 | 58 | 301 | 5.0 | 12.0 | 0.00 | 0.04 | 0.02 | 54 | 1016.0 |
| 20260507230934 | 58 | 339 | 5.0 | 12.0 | 0.00 | 0.04 | 0.02 | 54 | 1015.9 |
| 20260507230905 | 58 | 9 | 5.0 | 12.0 | 0.00 | 0.04 | 0.02 | 55 | 1015.9 |
| 20260507230855 | 58 | 355 | 5.0 | 12.0 | 0.00 | 0.04 | 0.02 | 55 | 1016.0 |
| 20260507230709 | 58 | 19 | 5.0 | 12.0 | 0.00 | 0.04 | 0.02 | 54 | 1016.0 |
| 20260507230658 | 58 | 320 | 5.0 | 12.0 | 0.00 | 0.04 | 0.02 | 54 | 1016.0 |
| 20260507230424 | 59 | 302 | 4.0 | 12.0 | 0.00 | 0.04 | 0.02 | 54 | 1016.0 |
| 20260507230324 | 59 | 5 | 4.0 | 11.0 | 0.00 | 0.04 | 0.02 | 53 | 1016.0 |
| 20260507230256 | 59 | 343 | 4.0 | 11.0 | 0.00 | 0.04 | 0.02 | 53 | 1016.0 |
| 20260507230245 | 59 | 315 | 4.0 | 11.0 | 0.00 | 0.04 | 0.02 | 54 | 1016.0 |
| 20260507230024 | 59 | 350 | 4.0 | 11.0 | 0.00 | 0.04 | 0.02 | 52 | 1016.1 |
| 20260507225919 | 59 | 313 | 4.0 | 11.0 | 0.00 | 0.04 | 0.02 | 52 | 1016.1 |
| 20260507225818 | 59 | 324 | 3.0 | 11.0 | 0.00 | 0.04 | 0.02 | 53 | 1016.1 |
| 20260507225753 | 59 | 279 | 3.0 | 11.0 | 0.00 | 0.04 | 0.02 | 54 | 1016.1 |
| 20260507225741 | 59 | 323 | 3.0 | 11.0 | 0.00 | 0.04 | 0.02 | 53 | 1016.1 |
| 20260507225520 | 59 | 289 | 3.0 | 11.0 | 0.00 | 0.04 | 0.02 | 54 | 1016.1 |
| 20260507225413 | 59 | 315 | 3.0 | 11.0 | 0.00 | 0.04 | 0.02 | 53 | 1016.1 |
| 20260507225311 | 60 | 302 | 3.0 | 11.0 | 0.00 | 0.04 | 0.02 | 53 | 1016.0 |
| 20260507225249 | 60 | 55 | 2.0 | 10.0 | 0.00 | 0.04 | 0.02 | 54 | 1016.1 |
| 20260507225238 | 60 | 311 | 2.0 | 10.0 | 0.00 | 0.04 | 0.02 | 56 | 1016.1 |
| 20260507225013 | 60 | 296 | 2.0 | 10.0 | 0.00 | 0.04 | 0.02 | 54 | 1016.0 |
| 20260507224859 | 60 | 277 | 2.0 | 10.0 | 0.00 | 0.04 | 0.02 | 53 | 1016.0 |
| 20260507224841 | 59 | 336 | 3.0 | 9.0 | 0.00 | 0.05 | 0.02 | 54 | 1016.2 |
| 20260507224835 | 60 | 318 | 3.0 | 10.0 | 0.00 | 0.04 | 0.02 | 54 | 1016.2 |
| 20260507224824 | 60 | 231 | 3.0 | 10.0 | 0.00 | 0.04 | 0.02 | 54 | 1016.1 |
| 20260507224654 | 60 | 0 | 3.0 | 9.0 | 0.00 | 0.05 | 0.02 | 55 | 1016.2 |
| 20260507224649 | 60 | 331 | 3.0 | 9.0 | 0.00 | 0.05 | 0.02 | 55 | 1016.2 |
| 20260507224631 | 60 | 268 | 3.0 | 10.0 | 0.00 | 0.04 | 0.02 | 56 | 1016.2 |
| 20260507224505 | 60 | 260 | 3.0 | 10.0 | 0.00 | 0.05 | 0.02 | 54 | 1016.2 |
| 20260507224449 | 60 | 320 | 3.0 | 10.0 | 0.00 | 0.05 | 0.02 | 55 | 1016.2 |
| 20260507224019 | 59 | 327 | 3.0 | 9.0 | 0.00 | 0.05 | 0.02 | 55 | 1016.1 |
| 20260507224009 | 59 | 306 | 3.0 | 9.0 | 0.00 | 0.05 | 0.02 | 55 | 1016.1 |
| 20260507223816 | 59 | 47 | 3.0 | 8.0 | 0.00 | 0.05 | 0.02 | 54 | 1016.2 |
| 20260507223807 | 59 | 22 | 3.0 | 9.0 | 0.00 | 0.05 | 0.02 | 54 | 1016.1 |
| 20260507223545 | 59 | 323 | 3.0 | 8.0 | 0.00 | 0.05 | 0.02 | 54 | 1016.1 |
| 20260507223445 | 59 | 349 | 3.0 | 8.0 | 0.00 | 0.05 | 0.02 | 58 | 1016.1 |
| 20260507223334 | 59 | 265 | 3.0 | 6.0 | 0.00 | 0.05 | 0.02 | 57 | 1016.2 |
| 20260507223236 | 59 | 268 | 3.0 | 6.0 | 0.00 | 0.05 | 0.02 | 58 | 1016.2 |
| 20260507223134 | 59 | 350 | 3.0 | 9.0 | 0.00 | 0.05 | 0.02 | 57 | 1016.2 |
| 20260507223035 | 59 | 336 | 3.0 | 9.0 | 0.00 | 0.05 | 0.02 | 59 | 1016.3 |
| 20260507222935 | 59 | 298 | 3.0 | 10.0 | 0.00 | 0.05 | 0.02 | 58 | 1016.2 |
| 20260507222831 | 59 | 69 | 3.0 | 10.0 | 0.00 | 0.05 | 0.02 | 56 | 1016.2 |
| 20260507222731 | 59 | 344 | 3.0 | 10.0 | 0.00 | 0.05 | 0.02 | 58 | 1016.3 |
| 20260507222631 | 59 | 18 | 4.0 | 10.0 | 0.00 | 0.05 | 0.02 | 57 | 1016.3 |
| 20260507222531 | 59 | 302 | 4.0 | 10.0 | 0.00 | 0.06 | 0.02 | 58 | 1016.3 |
| 20260507222429 | 59 | 355 | 4.0 | 10.0 | 0.00 | 0.06 | 0.02 | 55 | 1016.2 |
| 20260507222330 | 59 | 244 | 4.0 | 10.0 | 0.00 | 0.06 | 0.02 | 54 | 1016.3 |
| 20260507222229 | 59 | 49 | 4.0 | 10.0 | 0.00 | 0.06 | 0.02 | 55 | 1016.3 |
| 20260507222159 | 59 | 355 | 4.0 | 10.0 | 0.00 | 0.07 | 0.02 | 55 | 1016.2 |
| 20260507222149 | 59 | 336 | 4.0 | 10.0 | 0.00 | 0.06 | 0.02 | 57 | 1016.2 |
| 20260507222003 | 60 | 334 | 4.0 | 11.0 | 0.00 | 0.07 | 0.02 | 55 | 1016.3 |
| 20260507221952 | 60 | 331 | 4.0 | 10.0 | 0.00 | 0.07 | 0.02 | 56 | 1016.3 |
| 20260507221731 | 60 | 327 | 4.0 | 12.0 | 0.00 | 0.07 | 0.02 | 54 | 1016.2 |
| 20260507221626 | 60 | 296 | 4.0 | 12.0 | 0.00 | 0.08 | 0.02 | 55 | 1016.3 |
| 20260507221524 | 60 | 302 | 4.0 | 12.0 | 0.00 | 0.08 | 0.02 | 54 | 1016.3 |
| 20260507221424 | 60 | 300 | 4.0 | 12.0 | 0.00 | 0.08 | 0.02 | 56 | 1016.3 |
| 20260507221325 | 60 | 306 | 4.0 | 12.0 | 0.00 | 0.08 | 0.02 | 55 | 1016.3 |
| 20260507221225 | 60 | 344 | 4.0 | 12.0 | 0.00 | 0.08 | 0.02 | 54 | 1016.3 |
| 20260507221121 | 60 | 336 | 4.0 | 12.0 | 0.00 | 0.08 | 0.02 | 53 | 1016.3 |
| 20260507221018 | 60 | 301 | 3.0 | 12.0 | 0.00 | 0.08 | 0.02 | 54 | 1016.2 |
| 20260507220919 | 60 | 277 | 3.0 | 12.0 | 0.00 | 0.08 | 0.02 | 53 | 1016.2 |
| 20260507220817 | 60 | 342 | 3.0 | 10.0 | 0.00 | 0.08 | 0.02 | 54 | 1016.1 |
| 20260507220719 | 60 | 306 | 3.0 | 10.0 | 0.00 | 0.09 | 0.02 | 54 | 1016.2 |
| 20260507220616 | 60 | 355 | 3.0 | 10.0 | 0.00 | 0.09 | 0.02 | 53 | 1016.2 |
| 20260507220548 | 60 | 284 | 2.0 | 7.0 | 0.00 | 0.09 | 0.02 | 56 | 1016.3 |
| 20260507220537 | 60 | 349 | 3.0 | 10.0 | 0.00 | 0.09 | 0.02 | 55 | 1016.2 |
| 20260507220314 | 60 | 39 | 2.0 | 7.0 | 0.00 | 0.09 | 0.02 | 58 | 1016.3 |
| 20260507220214 | 60 | 22 | 3.0 | 9.0 | 0.00 | 0.09 | 0.02 | 56 | 1016.2 |
| 20260507220115 | 60 | 5 | 3.0 | 9.0 | 0.00 | 0.09 | 0.02 | 55 | 1016.2 |
| 20260507220014 | 60 | 241 | 3.0 | 9.0 | 0.00 | 0.09 | 0.02 | 54 | 1016.2 |
| 20260507215915 | 60 | 240 | 3.0 | 9.0 | 0.00 | 0.09 | 0.02 | 53 | 1016.3 |
| 20260507215812 | 60 | 355 | 3.0 | 9.0 | 0.00 | 0.09 | 0.02 | 54 | 1016.3 |
| 20260507215712 | 60 | 46 | 3.0 | 9.0 | 0.00 | 0.10 | 0.02 | 53 | 1016.3 |
| 20260507215622 | 60 | 286 | 4.0 | 11.0 | 0.00 | 0.10 | 0.02 | 55 | 1016.4 |
| 20260507215611 | 60 | 224 | 3.0 | 9.0 | 0.00 | 0.10 | 0.02 | 54 | 1016.4 |
| 20260507215544 | 60 | 286 | 4.0 | 11.0 | 0.00 | 0.10 | 0.02 | 55 | 1016.4 |
| 20260507215534 | 60 | 191 | 4.0 | 11.0 | 0.00 | 0.10 | 0.02 | 55 | 1016.5 |
| 20260507215314 | 60 | 300 | 4.0 | 11.0 | 0.00 | 0.10 | 0.02 | 55 | 1016.3 |
| 20260507215226 | 60 | 325 | 4.0 | 11.0 | 0.00 | 0.10 | 0.02 | 57 | 1016.3 |
| 20260507215214 | 60 | 334 | 4.0 | 11.0 | 0.00 | 0.10 | 0.02 | 54 | 1016.3 |
| 20260507215208 | 60 | 286 | 4.0 | 11.0 | 0.00 | 0.10 | 0.02 | 55 | 1016.2 |
| 20260507215203 | 60 | 196 | 3.0 | 11.0 | 0.00 | 0.10 | 0.02 | 55 | 1016.1 |
| 20260507215157 | 60 | 249 | 3.0 | 11.0 | 0.00 | 0.10 | 0.02 | 61 | 1016.2 |
| 20260507215144 | 60 | 297 | 4.0 | 11.0 | 0.00 | 0.10 | 0.02 | 58 | 1016.2 |
| 20260507215003 | 60 | 302 | 4.0 | 11.0 | 0.00 | 0.10 | 0.02 | 56 | 1016.3 |
| 20260507214457 | 60 | 277 | 4.0 | 11.0 | 0.00 | 0.10 | 0.02 | 56 | 1016.2 |
| 20260507214354 | 60 | 277 | 4.0 | 11.0 | 0.00 | 0.10 | 0.02 | 55 | 1016.2 |
| 20260507214253 | 60 | 232 | 4.0 | 12.0 | 0.00 | 0.10 | 0.02 | 54 | 1016.3 |
| 20260507214154 | 60 | 39 | 4.0 | 12.0 | 0.00 | 0.10 | 0.02 | 54 | 1016.3 |
| 20260507214053 | 60 | 279 | 4.0 | 12.0 | 0.00 | 0.10 | 0.02 | 56 | 1016.2 |
| 20260507213953 | 60 | 0 | 4.0 | 12.0 | 0.00 | 0.10 | 0.02 | 56 | 1016.2 |
| 20260507213854 | 60 | 309 | 4.0 | 12.0 | 0.00 | 0.10 | 0.02 | 57 | 1016.2 |
| 20260507213753 | 60 | 342 | 5.0 | 12.0 | 0.00 | 0.10 | 0.02 | 58 | 1016.2 |
| 20260507213655 | 60 | 17 | 4.0 | 12.0 | 0.00 | 0.10 | 0.02 | 59 | 1016.1 |
| 20260507213553 | 60 | 32 | 5.0 | 12.0 | 0.00 | 0.10 | 0.02 | 57 | 1016.2 |
| 20260507213526 | 60 | 0 | 5.0 | 12.0 | 0.00 | 0.10 | 0.02 | 56 | 1016.2 |
| 20260507213515 | 60 | 355 | 5.0 | 12.0 | 0.00 | 0.10 | 0.02 | 58 | 1016.2 |
| 20260507213255 | 60 | 348 | 5.0 | 11.0 | 0.00 | 0.10 | 0.02 | 56 | 1016.1 |
| 20260507213221 | 60 | 22 | 4.0 | 10.0 | 0.00 | 0.10 | 0.02 | 56 | 1016.0 |
| 20260507213210 | 60 | 320 | 4.0 | 11.0 | 0.00 | 0.10 | 0.02 | 56 | 1016.1 |
| 20260507212949 | 60 | 24 | 4.0 | 10.0 | 0.00 | 0.10 | 0.02 | 58 | 1016.1 |
| 20260507212849 | 60 | 306 | 4.0 | 10.0 | 0.00 | 0.10 | 0.02 | 57 | 1016.1 |
| 20260507212750 | 60 | 355 | 4.0 | 10.0 | 0.00 | 0.10 | 0.02 | 58 | 1016.1 |
| 20260507212651 | 60 | 273 | 5.0 | 10.0 | 0.00 | 0.10 | 0.02 | 56 | 1016.2 |
| 20260507212549 | 60 | 309 | 4.0 | 12.0 | 0.00 | 0.10 | 0.02 | 56 | 1016.1 |
| 20260507212449 | 60 | 318 | 5.0 | 12.0 | 0.00 | 0.10 | 0.02 | 56 | 1016.1 |
| 20260507212351 | 60 | 338 | 5.0 | 12.0 | 0.00 | 0.10 | 0.02 | 56 | 1016.1 |
| 20260507212249 | 60 | 333 | 5.0 | 12.0 | 0.00 | 0.10 | 0.02 | 56 | 1016.1 |
| 20260507212222 | 60 | 335 | 5.0 | 12.0 | 0.00 | 0.10 | 0.02 | 55 | 1016.2 |
| 20260507212211 | 60 | 318 | 4.0 | 12.0 | 0.00 | 0.10 | 0.02 | 55 | 1016.2 |
| 20260507211949 | 60 | 344 | 4.0 | 12.0 | 0.00 | 0.10 | 0.02 | 57 | 1016.1 |
| 20260507211750 | 60 | 213 | 4.0 | 12.0 | 0.00 | 0.10 | 0.02 | 55 | 1016.1 |
| 20260507211651 | 60 | 239 | 4.0 | 12.0 | 0.00 | 0.10 | 0.02 | 57 | 1016.2 |
| 20260507211551 | 60 | 290 | 4.0 | 10.0 | 0.00 | 0.10 | 0.02 | 56 | 1016.1 |
| 20260507211450 | 60 | 337 | 3.0 | 10.0 | 0.00 | 0.10 | 0.02 | 56 | 1016.0 |
| 20260507211349 | 60 | 39 | 3.0 | 10.0 | 0.00 | 0.10 | 0.02 | 55 | 1016.0 |
| 20260507211323 | 60 | 19 | 4.0 | 15.0 | 0.00 | 0.10 | 0.02 | 57 | 1016.0 |
| 20260507211311 | 60 | 330 | 4.0 | 14.0 | 0.00 | 0.10 | 0.02 | 57 | 1016.0 |
| 20260507211122 | 60 | 315 | 4.0 | 15.0 | 0.00 | 0.10 | 0.02 | 57 | 1016.0 |
| 20260507211110 | 60 | 341 | 4.0 | 15.0 | 0.00 | 0.10 | 0.02 | 57 | 1016.0 |
| 20260507210851 | 60 | 340 | 4.0 | 15.0 | 0.00 | 0.10 | 0.02 | 57 | 1015.9 |
| 20260507210749 | 60 | 296 | 4.0 | 15.0 | 0.00 | 0.10 | 0.02 | 60 | 1015.9 |
| 20260507210651 | 60 | 32 | 4.0 | 15.0 | 0.00 | 0.10 | 0.02 | 58 | 1015.9 |
| 20260507210549 | 60 | 340 | 4.0 | 15.0 | 0.00 | 0.11 | 0.02 | 62 | 1015.9 |
| 20260507210450 | 60 | 47 | 4.0 | 15.0 | 0.00 | 0.11 | 0.02 | 58 | 1015.9 |
| 20260507210350 | 61 | 263 | 4.0 | 15.0 | 0.00 | 0.11 | 0.02 | 56 | 1015.8 |
| 20260507210251 | 61 | 302 | 3.0 | 15.0 | 0.00 | 0.11 | 0.02 | 60 | 1015.9 |
| 20260507210150 | 61 | 309 | 4.0 | 14.0 | 0.00 | 0.11 | 0.02 | 58 | 1015.9 |
| 20260507210050 | 61 | 5 | 4.0 | 14.0 | 0.00 | 0.11 | 0.02 | 58 | 1015.9 |
| 20260507205949 | 61 | 229 | 3.0 | 14.0 | 0.00 | 0.11 | 0.02 | 57 | 1015.8 |
| 20260507205906 | 61 | 9 | 3.0 | 10.0 | 0.00 | 0.11 | 0.02 | 60 | 1015.8 |
| 20260507205900 | 60 | 5 | 3.0 | 10.0 | 0.00 | 0.11 | 0.02 | 60 | 1015.8 |
| 20260507205850 | 61 | 256 | 3.0 | 10.0 | 0.00 | 0.11 | 0.02 | 57 | 1015.8 |
| 20260507205829 | 61 | 252 | 3.0 | 10.0 | 0.00 | 0.11 | 0.02 | 60 | 1015.9 |
| 20260507205449 | 60 | 295 | 4.0 | 10.0 | 0.00 | 0.11 | 0.02 | 61 | 1015.9 |
| 20260507205351 | 60 | 350 | 3.0 | 13.0 | 0.00 | 0.11 | 0.02 | 59 | 1015.8 |
| 20260507205251 | 60 | 342 | 3.0 | 13.0 | 0.00 | 0.11 | 0.02 | 60 | 1015.9 |
| 20260507205145 | 60 | 5 | 3.0 | 13.0 | 0.00 | 0.11 | 0.02 | 59 | 1015.9 |
| 20260507205046 | 60 | 348 | 3.0 | 13.0 | 0.00 | 0.11 | 0.02 | 59 | 1015.8 |
| 20260507204946 | 60 | 289 | 3.0 | 13.0 | 0.00 | 0.11 | 0.02 | 60 | 1015.8 |
| 20260507204846 | 60 | 26 | 4.0 | 13.0 | 0.00 | 0.11 | 0.02 | 58 | 1015.8 |
| 20260507204746 | 60 | 34 | 4.0 | 13.0 | 0.00 | 0.11 | 0.02 | 58 | 1015.8 |
| 20260507204646 | 60 | 34 | 4.0 | 13.0 | 0.00 | 0.11 | 0.02 | 58 | 1015.8 |
| 20260507204546 | 60 | 20 | 4.0 | 13.0 | 0.00 | 0.11 | 0.02 | 59 | 1015.8 |
| 20260507204519 | 60 | 29 | 4.0 | 10.0 | 0.00 | 0.11 | 0.02 | 59 | 1015.8 |
| 20260507204507 | 60 | 5 | 4.0 | 13.0 | 0.00 | 0.11 | 0.02 | 59 | 1015.8 |
| 20260507204241 | 59 | 355 | 4.0 | 10.0 | 0.00 | 0.11 | 0.02 | 59 | 1015.7 |
| 20260507204143 | 59 | 321 | 4.0 | 10.0 | 0.00 | 0.11 | 0.02 | 59 | 1015.8 |
| 20260507204041 | 59 | 318 | 4.0 | 12.0 | 0.00 | 0.11 | 0.02 | 58 | 1015.8 |
| 20260507204012 | 59 | 26 | 4.0 | 12.0 | 0.00 | 0.11 | 0.02 | 59 | 1015.8 |
| 20260507204002 | 59 | 17 | 4.0 | 12.0 | 0.00 | 0.11 | 0.02 | 58 | 1015.8 |
| 20260507203744 | 59 | 22 | 4.0 | 12.0 | 0.00 | 0.11 | 0.02 | 58 | 1015.8 |
| 20260507203641 | 59 | 347 | 4.0 | 12.0 | 0.00 | 0.11 | 0.02 | 58 | 1015.8 |
| 20260507203614 | 59 | 341 | 3.0 | 12.0 | 0.00 | 0.11 | 0.02 | 58 | 1015.8 |
| 20260507203603 | 59 | 311 | 4.0 | 12.0 | 0.00 | 0.11 | 0.02 | 58 | 1015.8 |
| 20260507203416 | 59 | 65 | 3.0 | 12.0 | 0.00 | 0.11 | 0.02 | 59 | 1015.8 |
| 20260507203403 | 59 | 13 | 3.0 | 12.0 | 0.00 | 0.11 | 0.02 | 60 | 1015.8 |
| 20260507203215 | 60 | 14 | 3.0 | 12.0 | 0.00 | 0.11 | 0.02 | 57 | 1015.8 |
| 20260507203205 | 59 | 66 | 3.0 | 12.0 | 0.00 | 0.11 | 0.02 | 60 | 1015.9 |
| 20260507202957 | 61 | 5 | 3.0 | 12.0 | 0.00 | 0.11 | 0.02 | 59 | 1015.8 |
| 20260507202946 | 60 | 42 | 3.0 | 12.0 | 0.00 | 0.11 | 0.02 | 57 | 1015.8 |
| 20260507202924 | 60 | 355 | 3.0 | 12.0 | 0.00 | 0.11 | 0.02 | 56 | 1015.8 |
| 20260507202803 | 60 | 355 | 3.0 | 12.0 | 0.00 | 0.11 | 0.02 | 56 | 1015.8 |
| 20260507202613 | 61 | 65 | 3.0 | 12.0 | 0.00 | 0.11 | 0.02 | 57 | 1015.8 |
| 20260507202601 | 61 | 67 | 3.0 | 12.0 | 0.00 | 0.11 | 0.02 | 58 | 1015.8 |
| 20260507202436 | 61 | 59 | 4.0 | 11.0 | 0.00 | 0.11 | 0.02 | 59 | 1015.8 |
| 20260507202430 | 61 | 20 | 4.0 | 11.0 | 0.00 | 0.11 | 0.02 | 58 | 1015.8 |
| 20260507202425 | 61 | 343 | 3.0 | 11.0 | 0.00 | 0.11 | 0.02 | 57 | 1015.7 |
| 20260507202408 | 61 | 70 | 3.0 | 12.0 | 0.00 | 0.11 | 0.02 | 59 | 1015.8 |
| 20260507202350 | 61 | 20 | 4.0 | 11.0 | 0.00 | 0.11 | 0.02 | 61 | 1015.9 |
| 20260507201842 | 61 | 263 | 3.0 | 11.0 | 0.00 | 0.11 | 0.02 | 57 | 1015.8 |
| 20260507201742 | 61 | 344 | 3.0 | 11.0 | 0.00 | 0.11 | 0.02 | 56 | 1015.8 |
| 20260507201641 | 61 | 311 | 3.0 | 11.0 | 0.00 | 0.11 | 0.02 | 59 | 1015.8 |
| 20260507201542 | 61 | 313 | 3.0 | 11.0 | 0.00 | 0.11 | 0.02 | 59 | 1015.9 |
| 20260507201443 | 61 | 345 | 3.0 | 11.0 | 0.00 | 0.11 | 0.02 | 57 | 1015.8 |
| 20260507201342 | 61 | 335 | 3.0 | 11.0 | 0.00 | 0.11 | 0.02 | 58 | 1015.9 |
| 20260507201242 | 61 | 5 | 3.0 | 11.0 | 0.00 | 0.11 | 0.02 | 59 | 1015.8 |
| 20260507201139 | 61 | 69 | 3.0 | 11.0 | 0.00 | 0.11 | 0.02 | 59 | 1015.8 |
| 20260507201040 | 61 | 198 | 3.0 | 11.0 | 0.00 | 0.11 | 0.02 | 60 | 1015.8 |
| 20260507200940 | 60 | 227 | 3.0 | 11.0 | 0.00 | 0.11 | 0.02 | 60 | 1015.8 |
| 20260507200911 | 60 | 284 | 4.0 | 11.0 | 0.00 | 0.11 | 0.02 | 60 | 1015.8 |
| 20260507200900 | 60 | 355 | 4.0 | 11.0 | 0.00 | 0.11 | 0.02 | 60 | 1015.8 |
| 20260507200707 | 60 | 313 | 5.0 | 14.0 | 0.00 | 0.11 | 0.02 | 60 | 1015.8 |
| 20260507200655 | 60 | 267 | 5.0 | 14.0 | 0.00 | 0.11 | 0.02 | 61 | 1015.8 |
| 20260507200431 | 60 | 333 | 5.0 | 14.0 | 0.00 | 0.11 | 0.02 | 59 | 1015.9 |
| 20260507200401 | 60 | 267 | 6.0 | 16.0 | 0.00 | 0.11 | 0.02 | 58 | 1015.8 |
| 20260507200351 | 60 | 231 | 6.0 | 14.0 | 0.00 | 0.11 | 0.02 | 60 | 1015.7 |
| 20260507200126 | 59 | 295 | 6.0 | 16.0 | 0.00 | 0.11 | 0.02 | 58 | 1015.8 |
| 20260507200027 | 59 | 335 | 6.0 | 16.0 | 0.00 | 0.11 | 0.02 | 58 | 1015.8 |
| 20260507195924 | 59 | 348 | 6.0 | 16.0 | 0.00 | 0.11 | 0.02 | 57 | 1015.9 |
| 20260507195823 | 59 | 305 | 6.0 | 16.0 | 0.00 | 0.11 | 0.02 | 57 | 1015.8 |
| 20260507195724 | 60 | 298 | 5.0 | 16.0 | 0.00 | 0.11 | 0.02 | 56 | 1015.9 |
| 20260507195623 | 60 | 271 | 5.0 | 16.0 | 0.00 | 0.11 | 0.02 | 57 | 1015.9 |
| 20260507195520 | 60 | 259 | 5.0 | 16.0 | 0.00 | 0.11 | 0.02 | 58 | 1015.9 |
| 20260507195420 | 60 | 0 | 4.0 | 16.0 | 0.00 | 0.11 | 0.02 | 57 | 1015.9 |
| 20260507195321 | 60 | 320 | 4.0 | 14.0 | 0.00 | 0.11 | 0.02 | 58 | 1015.9 |
| 20260507195219 | 60 | 309 | 4.0 | 9.0 | 0.00 | 0.11 | 0.02 | 59 | 1015.9 |
| 20260507195119 | 60 | 302 | 3.0 | 9.0 | 0.00 | 0.11 | 0.02 | 60 | 1015.9 |
| 20260507195021 | 60 | 338 | 4.0 | 9.0 | 0.00 | 0.11 | 0.02 | 58 | 1015.9 |
| 20260507194920 | 60 | 305 | 4.0 | 9.0 | 0.00 | 0.11 | 0.02 | 59 | 1015.8 |
| 20260507194817 | 60 | 34 | 4.0 | 9.0 | 0.00 | 0.11 | 0.02 | 63 | 1015.8 |
| 20260507194719 | 59 | 349 | 4.0 | 9.0 | 0.00 | 0.11 | 0.02 | 60 | 1015.9 |
| 20260507194617 | 59 | 355 | 4.0 | 9.0 | 0.00 | 0.11 | 0.02 | 61 | 1015.8 |
| 20260507194543 | 59 | 69 | 4.0 | 10.0 | 0.00 | 0.11 | 0.02 | 63 | 1015.9 |
| 20260507194534 | 59 | 0 | 4.0 | 10.0 | 0.00 | 0.11 | 0.02 | 63 | 1015.9 |
| 20260507194311 | 59 | 281 | 5.0 | 10.0 | 0.00 | 0.11 | 0.02 | 61 | 1015.8 |
| 20260507194213 | 59 | 282 | 5.0 | 10.0 | 0.00 | 0.11 | 0.02 | 60 | 1016.0 |
| 20260507194112 | 59 | 211 | 4.0 | 10.0 | 0.00 | 0.11 | 0.02 | 60 | 1016.0 |
| 20260507194013 | 59 | 230 | 4.0 | 10.0 | 0.00 | 0.11 | 0.02 | 60 | 1016.0 |
| 20260507193907 | 59 | 355 | 4.0 | 10.0 | 0.00 | 0.11 | 0.02 | 60 | 1016.0 |
| 20260507193849 | 59 | 316 | 4.0 | 10.0 | 0.00 | 0.11 | 0.02 | 61 | 1016.1 |
| 20260507193843 | 59 | 355 | 3.0 | 10.0 | 0.00 | 0.11 | 0.02 | 61 | 1016.0 |
| 20260507193837 | 59 | 292 | 3.0 | 10.0 | 0.00 | 0.11 | 0.02 | 61 | 1016.1 |
| 20260507193827 | 59 | 0 | 4.0 | 10.0 | 0.00 | 0.11 | 0.02 | 62 | 1016.0 |
| 20260507193642 | 59 | 314 | 3.0 | 10.0 | 0.00 | 0.11 | 0.02 | 62 | 1016.1 |
| 20260507193259 | 59 | 0 | 2.0 | 10.0 | 0.00 | 0.11 | 0.02 | 61 | 1016.0 |
| 20260507193200 | 59 | 88 | 2.0 | 8.0 | 0.00 | 0.11 | 0.02 | 62 | 1016.0 |
| 20260507193130 | 59 | 298 | 3.0 | 9.0 | 0.00 | 0.11 | 0.02 | 63 | 1016.0 |
| 20260507193120 | 59 | 100 | 2.0 | 8.0 | 0.00 | 0.11 | 0.02 | 61 | 1016.0 |
| 20260507192849 | 59 | 338 | 3.0 | 9.0 | 0.00 | 0.11 | 0.02 | 62 | 1016.0 |
| 20260507192750 | 59 | 317 | 3.0 | 9.0 | 0.00 | 0.11 | 0.02 | 63 | 1016.0 |
| 20260507192651 | 59 | 23 | 3.0 | 9.0 | 0.00 | 0.11 | 0.02 | 66 | 1016.0 |
| 20260507192547 | 59 | 22 | 4.0 | 10.0 | 0.00 | 0.11 | 0.02 | 66 | 1016.0 |
| 20260507192446 | 59 | 22 | 4.0 | 10.0 | 0.00 | 0.11 | 0.02 | 65 | 1016.0 |
| 20260507192341 | 58 | 25 | 4.0 | 10.0 | 0.00 | 0.11 | 0.02 | 62 | 1015.9 |
| 20260507192239 | 58 | 25 | 5.0 | 14.0 | 0.00 | 0.11 | 0.02 | 60 | 1016.0 |
| 20260507192139 | 58 | 355 | 5.0 | 14.0 | 0.00 | 0.11 | 0.02 | 62 | 1016.0 |
| 20260507192041 | 58 | 9 | 5.0 | 14.0 | 0.00 | 0.11 | 0.02 | 60 | 1016.0 |
| 20260507191939 | 59 | 355 | 5.0 | 14.0 | 0.00 | 0.11 | 0.02 | 61 | 1015.9 |
| 20260507191913 | 59 | 355 | 5.0 | 14.0 | 0.00 | 0.11 | 0.02 | 60 | 1015.9 |
| 20260507191908 | 59 | 260 | 5.0 | 14.0 | 0.00 | 0.11 | 0.02 | 60 | 1016.1 |
| 20260507191857 | 59 | 326 | 5.0 | 14.0 | 0.00 | 0.11 | 0.02 | 62 | 1015.9 |
| 20260507191535 | 59 | 295 | 5.0 | 14.0 | 0.00 | 0.11 | 0.02 | 62 | 1016.0 |
| 20260507191433 | 59 | 279 | 5.0 | 14.0 | 0.00 | 0.11 | 0.02 | 62 | 1016.0 |
| 20260507191329 | 58 | 260 | 5.0 | 14.0 | 0.00 | 0.11 | 0.02 | 61 | 1016.0 |
| 20260507191228 | 58 | 264 | 5.0 | 10.0 | 0.00 | 0.11 | 0.02 | 63 | 1016.0 |
| 20260507191126 | 58 | 313 | 4.0 | 10.0 | 0.00 | 0.11 | 0.02 | 61 | 1015.9 |
| 20260507191025 | 58 | 290 | 4.0 | 9.0 | 0.00 | 0.11 | 0.02 | 62 | 1015.9 |
| 20260507190926 | 58 | 306 | 4.0 | 9.0 | 0.00 | 0.11 | 0.02 | 63 | 1016.0 |
| 20260507190823 | 58 | 49 | 4.0 | 9.0 | 0.00 | 0.11 | 0.02 | 65 | 1016.0 |
| 20260507190723 | 58 | 44 | 4.0 | 9.0 | 0.00 | 0.11 | 0.02 | 63 | 1016.0 |
| 20260507190623 | 58 | 10 | 3.0 | 9.0 | 0.00 | 0.11 | 0.02 | 62 | 1016.0 |
| 20260507190523 | 58 | 299 | 3.0 | 9.0 | 0.00 | 0.11 | 0.02 | 61 | 1016.0 |
| 20260507190423 | 58 | 311 | 3.0 | 9.0 | 0.00 | 0.11 | 0.02 | 62 | 1016.0 |
| 20260507190323 | 58 | 5 | 3.0 | 8.0 | 0.00 | 0.11 | 0.02 | 62 | 1016.0 |
| 20260507190222 | 58 | 13 | 3.0 | 8.0 | 0.00 | 0.11 | 0.02 | 62 | 1016.1 |
| 20260507190123 | 59 | 5 | 3.0 | 8.0 | 0.00 | 0.11 | 0.02 | 63 | 1016.1 |
| 20260507190054 | 58 | 110 | 4.0 | 9.0 | 0.00 | 0.11 | 0.02 | 66 | 1016.1 |
| 20260507190045 | 58 | 5 | 4.0 | 9.0 | 0.00 | 0.11 | 0.02 | 63 | 1016.1 |
| 20260507185823 | 58 | 5 | 4.0 | 11.0 | 0.00 | 0.11 | 0.02 | 65 | 1016.1 |
| 20260507185720 | 58 | 302 | 4.0 | 11.0 | 0.00 | 0.11 | 0.02 | 64 | 1016.1 |
| 20260507185620 | 58 | 294 | 5.0 | 11.0 | 0.00 | 0.11 | 0.02 | 62 | 1016.1 |
| 20260507185520 | 58 | 323 | 4.0 | 11.0 | 0.00 | 0.11 | 0.02 | 63 | 1016.1 |
| 20260507185450 | 58 | 310 | 4.0 | 11.0 | 0.00 | 0.11 | 0.02 | 64 | 1016.0 |
| 20260507185440 | 58 | 196 | 4.0 | 11.0 | 0.00 | 0.11 | 0.02 | 64 | 1016.2 |
| 20260507185219 | 58 | 5 | 4.0 | 11.0 | 0.00 | 0.11 | 0.02 | 63 | 1016.1 |
| 20260507185118 | 58 | 355 | 4.0 | 11.0 | 0.00 | 0.11 | 0.02 | 65 | 1016.1 |
| 20260507185053 | 58 | 301 | 3.0 | 11.0 | 0.00 | 0.11 | 0.02 | 63 | 1016.2 |
| 20260507185042 | 58 | 38 | 4.0 | 11.0 | 0.00 | 0.11 | 0.02 | 64 | 1016.1 |
| 20260507184818 | 58 | 344 | 3.0 | 8.0 | 0.00 | 0.11 | 0.02 | 68 | 1016.1 |
| 20260507184717 | 58 | 50 | 3.0 | 8.0 | 0.00 | 0.11 | 0.02 | 66 | 1016.1 |
| 20260507184617 | 58 | 11 | 3.0 | 8.0 | 0.00 | 0.11 | 0.02 | 64 | 1016.0 |
| 20260507184518 | 58 | 75 | 3.0 | 8.0 | 0.00 | 0.11 | 0.02 | 64 | 1016.0 |
| 20260507184419 | 58 | 24 | 3.0 | 8.0 | 0.00 | 0.11 | 0.02 | 64 | 1016.1 |
| 20260507184316 | 58 | 355 | 3.0 | 8.0 | 0.00 | 0.11 | 0.02 | 65 | 1016.2 |
| 20260507184238 | 58 | 300 | 3.0 | 9.0 | 0.00 | 0.11 | 0.02 | 68 | 1016.3 |
| 20260507184233 | 57 | 23 | 3.0 | 9.0 | 0.00 | 0.11 | 0.02 | 68 | 1016.2 |
| 20260507184220 | 58 | 330 | 3.0 | 9.0 | 0.00 | 0.11 | 0.02 | 68 | 1016.2 |
| 20260507184156 | 58 | 271 | 3.0 | 9.0 | 0.00 | 0.11 | 0.02 | 68 | 1016.2 |
| 20260507183850 | 57 | 59 | 3.0 | 9.0 | 0.00 | 0.11 | 0.02 | 67 | 1016.3 |
| 20260507183838 | 57 | 74 | 3.0 | 9.0 | 0.00 | 0.11 | 0.02 | 67 | 1016.3 |
| 20260507183645 | 57 | 327 | 4.0 | 12.0 | 0.00 | 0.11 | 0.02 | 69 | 1016.3 |
| 20260507183635 | 57 | 323 | 4.0 | 12.0 | 0.00 | 0.11 | 0.02 | 67 | 1016.3 |
| 20260507183407 | 57 | 15 | 4.0 | 12.0 | 0.00 | 0.11 | 0.02 | 70 | 1016.3 |
| 20260507183308 | 56 | 331 | 4.0 | 12.0 | 0.00 | 0.11 | 0.02 | 69 | 1016.2 |
| 20260507183208 | 56 | 266 | 4.0 | 12.0 | 0.00 | 0.11 | 0.02 | 68 | 1016.3 |
| 20260507183106 | 56 | 0 | 4.0 | 12.0 | 0.00 | 0.11 | 0.02 | 69 | 1016.2 |
| 20260507183004 | 56 | 9 | 4.0 | 12.0 | 0.00 | 0.11 | 0.02 | 69 | 1016.3 |
| 20260507182900 | 56 | 87 | 4.0 | 12.0 | 0.00 | 0.11 | 0.02 | 69 | 1016.3 |
| 20260507182758 | 56 | 63 | 4.0 | 12.0 | 0.00 | 0.11 | 0.02 | 67 | 1016.3 |
| 20260507182656 | 57 | 94 | 4.0 | 14.0 | 0.00 | 0.11 | 0.02 | 69 | 1016.3 |
| 20260507182556 | 57 | 45 | 4.0 | 14.0 | 0.00 | 0.11 | 0.02 | 68 | 1016.3 |
| 20260507182532 | 57 | 315 | 4.0 | 14.0 | 0.00 | 0.11 | 0.02 | 67 | 1016.4 |
| 20260507182521 | 57 | 61 | 4.0 | 14.0 | 0.00 | 0.11 | 0.02 | 66 | 1016.4 |
| 20260507182337 | 56 | 28 | 5.0 | 13.0 | 0.00 | 0.11 | 0.02 | 70 | 1016.4 |
| 20260507182332 | 57 | 74 | 4.0 | 14.0 | 0.00 | 0.11 | 0.02 | 65 | 1016.4 |
| 20260507182327 | 56 | 38 | 4.0 | 14.0 | 0.00 | 0.11 | 0.02 | 68 | 1016.3 |
| 20260507182317 | 57 | 70 | 4.0 | 14.0 | 0.00 | 0.11 | 0.02 | 65 | 1016.4 |
| 20260507182150 | 56 | 345 | 4.0 | 14.0 | 0.00 | 0.11 | 0.02 | 66 | 1016.4 |
| 20260507182137 | 57 | 26 | 4.0 | 14.0 | 0.00 | 0.11 | 0.02 | 68 | 1016.4 |
| 20260507182114 | 56 | 247 | 4.0 | 14.0 | 0.00 | 0.11 | 0.02 | 67 | 1016.4 |
| 20260507181713 | 56 | 11 | 4.0 | 13.0 | 0.00 | 0.11 | 0.02 | 67 | 1016.4 |
| 20260507181453 | 56 | 17 | 5.0 | 16.0 | 0.00 | 0.11 | 0.02 | 69 | 1016.4 |
| 20260507181354 | 56 | 19 | 5.0 | 16.0 | 0.00 | 0.11 | 0.02 | 70 | 1016.4 |
| 20260507181255 | 56 | 20 | 6.0 | 16.0 | 0.00 | 0.11 | 0.02 | 73 | 1016.3 |
| 20260507181150 | 56 | 29 | 6.0 | 16.0 | 0.00 | 0.11 | 0.02 | 74 | 1016.4 |
| 20260507181051 | 56 | 48 | 6.0 | 16.0 | 0.00 | 0.11 | 0.02 | 71 | 1016.3 |
| 20260507181024 | 56 | 35 | 5.0 | 16.0 | 0.00 | 0.11 | 0.02 | 68 | 1016.4 |
| 20260507181014 | 56 | 5 | 6.0 | 16.0 | 0.00 | 0.11 | 0.02 | 69 | 1016.3 |
| 20260507180751 | 57 | 14 | 6.0 | 16.0 | 0.00 | 0.11 | 0.02 | 67 | 1016.4 |
| 20260507180652 | 57 | 343 | 5.0 | 16.0 | 0.00 | 0.11 | 0.02 | 68 | 1016.4 |
| 20260507180551 | 57 | 328 | 5.0 | 16.0 | 0.00 | 0.11 | 0.02 | 67 | 1016.3 |
| 20260507180452 | 57 | 15 | 5.0 | 13.0 | 0.00 | 0.11 | 0.02 | 68 | 1016.4 |
| 20260507180351 | 57 | 355 | 5.0 | 13.0 | 0.00 | 0.11 | 0.02 | 67 | 1016.4 |
| 20260507180251 | 57 | 48 | 5.0 | 12.0 | 0.00 | 0.11 | 0.02 | 66 | 1016.4 |
| 20260507180148 | 57 | 309 | 5.0 | 13.0 | 0.00 | 0.11 | 0.02 | 68 | 1016.4 |
| 20260507180048 | 57 | 294 | 5.0 | 13.0 | 0.00 | 0.11 | 0.02 | 68 | 1016.4 |
| 20260507175950 | 57 | 346 | 5.0 | 13.0 | 0.00 | 0.11 | 0.02 | 68 | 1016.5 |
| 20260507175852 | 57 | 5 | 5.0 | 13.0 | 0.00 | 0.11 | 0.02 | 68 | 1016.5 |
| 20260507175749 | 57 | 36 | 5.0 | 13.0 | 0.00 | 0.11 | 0.02 | 69 | 1016.4 |
| 20260507175649 | 56 | 294 | 5.0 | 13.0 | 0.00 | 0.11 | 0.02 | 70 | 1016.5 |
| 20260507175549 | 56 | 45 | 5.0 | 13.0 | 0.00 | 0.11 | 0.02 | 70 | 1016.5 |
| 20260507175450 | 56 | 38 | 5.0 | 13.0 | 0.00 | 0.11 | 0.02 | 69 | 1016.7 |
| 20260507175348 | 56 | 335 | 5.0 | 13.0 | 0.00 | 0.11 | 0.02 | 70 | 1016.7 |
| 20260507175248 | 57 | 333 | 5.0 | 13.0 | 0.00 | 0.11 | 0.02 | 66 | 1016.5 |
| 20260507175149 | 57 | 269 | 5.0 | 13.0 | 0.00 | 0.11 | 0.02 | 66 | 1016.5 |
| 20260507175047 | 57 | 336 | 5.0 | 13.0 | 0.00 | 0.11 | 0.02 | 66 | 1016.7 |
| 20260507174950 | 58 | 313 | 4.0 | 13.0 | 0.00 | 0.11 | 0.02 | 68 | 1016.7 |
| 20260507174920 | 56 | 102 | 5.0 | 14.0 | 0.00 | 0.11 | 0.02 | 69 | 1016.4 |
| 20260507174915 | 57 | 0 | 5.0 | 14.0 | 0.00 | 0.11 | 0.02 | 70 | 1016.7 |
| 20260507174900 | 58 | 323 | 4.0 | 13.0 | 0.00 | 0.11 | 0.02 | 70 | 1016.7 |
| 20260507174842 | 57 | 19 | 5.0 | 13.0 | 0.00 | 0.11 | 0.02 | 70 | 1016.5 |
| 20260507174550 | 57 | 36 | 5.0 | 14.0 | 0.00 | 0.11 | 0.02 | 70 | 1016.7 |
| 20260507174527 | 57 | 84 | 5.0 | 14.0 | 0.00 | 0.11 | 0.02 | 69 | 1016.7 |
| 20260507174401 | 56 | 333 | 5.0 | 14.0 | 0.00 | 0.11 | 0.02 | 68 | 1016.7 |
| 20260507174145 | 56 | 20 | 5.0 | 14.0 | 0.00 | 0.11 | 0.02 | 72 | 1016.5 |
| 20260507174042 | 56 | 15 | 6.0 | 14.0 | 0.00 | 0.11 | 0.02 | 69 | 1016.4 |
| 20260507174019 | 56 | 330 | 7.0 | 15.0 | 0.00 | 0.11 | 0.02 | 70 | 1016.7 |
| 20260507174007 | 56 | 15 | 6.0 | 15.0 | 0.00 | 0.11 | 0.02 | 69 | 1016.5 |
| 20260507173820 | 56 | 329 | 6.0 | 15.0 | 0.00 | 0.11 | 0.02 | 71 | 1016.8 |
| 20260507173757 | 56 | 318 | 6.0 | 15.0 | 0.00 | 0.11 | 0.02 | 70 | 1016.5 |
| 20260507173737 | 56 | 339 | 6.0 | 15.0 | 0.00 | 0.11 | 0.02 | 68 | 1016.7 |
| 20260507173438 | 56 | 309 | 5.0 | 15.0 | 0.00 | 0.11 | 0.02 | 71 | 1016.7 |
| 20260507173336 | 56 | 0 | 5.0 | 15.0 | 0.00 | 0.11 | 0.02 | 69 | 1016.5 |
| 20260507173231 | 56 | 355 | 5.0 | 15.0 | 0.00 | 0.11 | 0.02 | 70 | 1016.5 |
| 20260507173128 | 56 | 339 | 5.0 | 15.0 | 0.00 | 0.11 | 0.02 | 67 | 1016.5 |
| 20260507173029 | 56 | 329 | 4.0 | 15.0 | 0.00 | 0.11 | 0.02 | 68 | 1016.7 |
| 20260507173005 | 57 | 321 | 4.0 | 11.0 | 0.00 | 0.11 | 0.02 | 66 | 1016.5 |
| 20260507172954 | 56 | 347 | 4.0 | 11.0 | 0.00 | 0.11 | 0.02 | 66 | 1016.5 |
| 20260507172748 | 57 | 71 | 4.0 | 11.0 | 0.00 | 0.11 | 0.02 | 68 | 1016.4 |
| 20260507172737 | 57 | 345 | 4.0 | 11.0 | 0.00 | 0.11 | 0.02 | 66 | 1016.5 |
| 20260507172515 | 57 | 17 | 4.0 | 11.0 | 0.00 | 0.11 | 0.02 | 67 | 1016.3 |
| 20260507172415 | 57 | 24 | 4.0 | 11.0 | 0.00 | 0.11 | 0.02 | 65 | 1016.4 |
| 20260507172316 | 57 | 28 | 4.0 | 11.0 | 0.00 | 0.11 | 0.02 | 70 | 1016.3 |
| 20260507172211 | 57 | 84 | 4.0 | 11.0 | 0.00 | 0.11 | 0.02 | 69 | 1016.4 |
| 20260507172111 | 56 | 85 | 4.0 | 11.0 | 0.00 | 0.11 | 0.02 | 71 | 1016.4 |
| 20260507172010 | 56 | 65 | 5.0 | 12.0 | 0.00 | 0.11 | 0.02 | 69 | 1016.4 |
| 20260507171909 | 56 | 282 | 4.0 | 12.0 | 0.00 | 0.11 | 0.02 | 68 | 1016.4 |
| 20260507171810 | 56 | 224 | 4.0 | 12.0 | 0.00 | 0.11 | 0.02 | 67 | 1016.4 |
| 20260507171703 | 56 | 338 | 4.0 | 12.0 | 0.00 | 0.11 | 0.02 | 70 | 1016.5 |
| 20260507171602 | 56 | 341 | 4.0 | 12.0 | 0.00 | 0.11 | 0.02 | 69 | 1016.5 |
| 20260507171504 | 56 | 17 | 4.0 | 12.0 | 0.00 | 0.11 | 0.02 | 69 | 1016.7 |
| 20260507171440 | 56 | 0 | 4.0 | 12.0 | 0.00 | 0.11 | 0.02 | 68 | 1016.5 |
| 20260507171429 | 56 | 355 | 4.0 | 12.0 | 0.00 | 0.11 | 0.02 | 67 | 1016.7 |
| 20260507171153 | 56 | 333 | 3.0 | 12.0 | 0.00 | 0.11 | 0.02 | 69 | 1016.5 |
| 20260507171052 | 57 | 294 | 3.0 | 12.0 | 0.00 | 0.11 | 0.02 | 73 | 1016.5 |
| 20260507170954 | 56 | 67 | 4.0 | 9.0 | 0.00 | 0.11 | 0.02 | 71 | 1016.5 |
| 20260507170854 | 56 | 57 | 4.0 | 9.0 | 0.00 | 0.11 | 0.02 | 71 | 1016.5 |
| 20260507170753 | 56 | 294 | 4.0 | 9.0 | 0.00 | 0.11 | 0.02 | 70 | 1016.5 |
| 20260507170650 | 56 | 355 | 4.0 | 11.0 | 0.00 | 0.11 | 0.02 | 70 | 1016.5 |
| 20260507170550 | 56 | 0 | 4.0 | 11.0 | 0.00 | 0.11 | 0.02 | 69 | 1016.5 |
| 20260507170451 | 56 | 57 | 4.0 | 11.0 | 0.00 | 0.11 | 0.02 | 68 | 1016.5 |
| 20260507170350 | 56 | 45 | 4.0 | 11.0 | 0.00 | 0.11 | 0.02 | 68 | 1016.4 |
| 20260507170248 | 57 | 51 | 4.0 | 11.0 | 0.00 | 0.11 | 0.02 | 73 | 1016.4 |
| 20260507170142 | 56 | 90 | 5.0 | 11.0 | 0.00 | 0.11 | 0.02 | 69 | 1016.5 |
| 20260507170042 | 56 | 5 | 5.0 | 11.0 | 0.00 | 0.11 | 0.02 | 72 | 1016.4 |
| 20260507165942 | 56 | 5 | 5.0 | 12.0 | 0.00 | 0.11 | 0.02 | 72 | 1016.4 |
| 20260507165842 | 56 | 13 | 4.0 | 12.0 | 0.00 | 0.11 | 0.02 | 71 | 1016.4 |
| 20260507165741 | 56 | 12 | 4.0 | 12.0 | 0.00 | 0.11 | 0.02 | 70 | 1016.4 |
| 20260507165628 | 56 | 72 | 4.0 | 12.0 | 0.00 | 0.11 | 0.02 | 69 | 1016.5 |
| 20260507165528 | 56 | 319 | 4.0 | 12.0 | 0.00 | 0.11 | 0.02 | 68 | 1016.4 |
| 20260507165428 | 56 | 79 | 5.0 | 12.0 | 0.00 | 0.11 | 0.02 | 69 | 1016.4 |
| 20260507165346 | 56 | 49 | 4.0 | 12.0 | 0.00 | 0.11 | 0.02 | 73 | 1016.5 |
| 20260507165333 | 56 | 294 | 4.0 | 12.0 | 0.00 | 0.11 | 0.02 | 69 | 1016.4 |
| 20260507165232 | 56 | 34 | 4.0 | 12.0 | 0.00 | 0.11 | 0.02 | 70 | 1016.4 |
| 20260507165224 | 56 | 40 | 5.0 | 12.0 | 0.00 | 0.11 | 0.02 | 72 | 1016.3 |
| 20260507165203 | 56 | 17 | 4.0 | 12.0 | 0.00 | 0.11 | 0.02 | 69 | 1016.4 |
| 20260507164823 | 56 | 29 | 5.0 | 13.0 | 0.00 | 0.11 | 0.02 | 74 | 1016.4 |
| 20260507164722 | 55 | 56 | 5.0 | 13.0 | 0.00 | 0.11 | 0.02 | 74 | 1016.2 |
| 20260507164616 | 55 | 0 | 5.0 | 13.0 | 0.00 | 0.11 | 0.02 | 71 | 1016.2 |
| 20260507164515 | 55 | 49 | 4.0 | 13.0 | 0.00 | 0.11 | 0.02 | 71 | 1016.1 |
| 20260507164417 | 55 | 51 | 4.0 | 13.0 | 0.00 | 0.11 | 0.02 | 71 | 1016.1 |
| 20260507164315 | 55 | 0 | 4.0 | 13.0 | 0.00 | 0.11 | 0.02 | 74 | 1016.3 |
| 20260507164216 | 55 | 35 | 4.0 | 13.0 | 0.00 | 0.11 | 0.02 | 72 | 1016.5 |
| 20260507164106 | 54 | 355 | 4.0 | 13.0 | 0.00 | 0.11 | 0.02 | 71 | 1016.7 |
| 20260507164009 | 54 | 302 | 4.0 | 13.0 | 0.00 | 0.11 | 0.02 | 71 | 1016.8 |
| 20260507163907 | 54 | 329 | 3.0 | 13.0 | 0.00 | 0.11 | 0.02 | 71 | 1016.8 |
| 20260507163809 | 54 | 337 | 3.0 | 11.0 | 0.00 | 0.11 | 0.02 | 73 | 1016.8 |
| 20260507163706 | 54 | 350 | 3.0 | 11.0 | 0.00 | 0.11 | 0.02 | 70 | 1016.8 |
| 20260507163655 | 55 | 106 | 3.0 | 10.0 | 0.00 | 0.11 | 0.02 | 73 | 1016.7 |
| 20260507163650 | 55 | 285 | 3.0 | 11.0 | 0.00 | 0.11 | 0.02 | 72 | 1016.8 |
| 20260507163631 | 54 | 53 | 3.0 | 11.0 | 0.00 | 0.11 | 0.02 | 71 | 1016.9 |
| 20260507163502 | 54 | 62 | 3.0 | 11.0 | 0.00 | 0.11 | 0.02 | 73 | 1016.9 |
| 20260507163456 | 55 | 308 | 3.0 | 11.0 | 0.00 | 0.11 | 0.02 | 70 | 1016.7 |
| 20260507163439 | 55 | 51 | 3.0 | 11.0 | 0.00 | 0.11 | 0.02 | 73 | 1016.9 |
| 20260507163421 | 55 | 5 | 3.0 | 10.0 | 0.00 | 0.11 | 0.02 | 72 | 1016.7 |
| 20260507163131 | 55 | 53 | 3.0 | 11.0 | 0.00 | 0.11 | 0.02 | 74 | 1016.5 |
| 20260507162754 | 55 | 342 | 3.0 | 11.0 | 0.00 | 0.11 | 0.02 | 73 | 1016.8 |
| 20260507162654 | 55 | 355 | 3.0 | 11.0 | 0.00 | 0.11 | 0.02 | 74 | 1016.8 |
| 20260507162542 | 55 | 42 | 4.0 | 11.0 | 0.00 | 0.11 | 0.02 | 73 | 1016.8 |
| 20260507162439 | 55 | 328 | 4.0 | 11.0 | 0.00 | 0.11 | 0.02 | 73 | 1016.8 |
| 20260507162356 | 56 | 98 | 4.0 | 9.0 | 0.00 | 0.11 | 0.02 | 74 | 1016.8 |
| 20260507162343 | 55 | 35 | 4.0 | 11.0 | 0.00 | 0.11 | 0.02 | 72 | 1016.8 |
| 20260507162321 | 56 | 0 | 4.0 | 11.0 | 0.00 | 0.11 | 0.02 | 72 | 1016.8 |
| 20260507162157 | 56 | 342 | 3.0 | 9.0 | 0.00 | 0.11 | 0.02 | 74 | 1016.8 |
| 20260507161935 | 56 | 114 | 4.0 | 9.0 | 0.00 | 0.11 | 0.02 | 71 | 1016.8 |
| 20260507161833 | 56 | 355 | 4.0 | 9.0 | 0.00 | 0.11 | 0.02 | 75 | 1016.9 |
| 20260507161734 | 55 | 24 | 4.0 | 9.0 | 0.00 | 0.11 | 0.02 | 75 | 1017.0 |
| 20260507161634 | 55 | 333 | 4.0 | 9.0 | 0.00 | 0.11 | 0.02 | 73 | 1017.0 |
| 20260507161529 | 55 | 61 | 4.0 | 9.0 | 0.00 | 0.11 | 0.02 | 71 | 1016.9 |
| 20260507161428 | 55 | 70 | 4.0 | 9.0 | 0.00 | 0.11 | 0.02 | 77 | 1016.9 |
| 20260507161331 | 55 | 54 | 4.0 | 9.0 | 0.00 | 0.11 | 0.02 | 79 | 1016.9 |
| 20260507161228 | 55 | 29 | 4.0 | 11.0 | 0.00 | 0.11 | 0.02 | 73 | 1016.9 |
| 20260507161126 | 55 | 49 | 4.0 | 13.0 | 0.00 | 0.11 | 0.02 | 75 | 1016.8 |
| 20260507161017 | 55 | 80 | 4.0 | 13.0 | 0.00 | 0.11 | 0.02 | 74 | 1016.7 |
| 20260507160917 | 55 | 40 | 4.0 | 13.0 | 0.00 | 0.11 | 0.02 | 75 | 1016.8 |
| 20260507160817 | 55 | 14 | 4.0 | 13.0 | 0.00 | 0.11 | 0.02 | 74 | 1016.7 |
| 20260507160742 | 55 | 16 | 4.0 | 10.0 | 0.00 | 0.11 | 0.02 | 72 | 1016.8 |
| 20260507160736 | 55 | 19 | 4.0 | 13.0 | 0.00 | 0.11 | 0.02 | 75 | 1016.7 |
| 20260507160724 | 55 | 294 | 4.0 | 13.0 | 0.00 | 0.11 | 0.02 | 74 | 1016.7 |
| 20260507160704 | 55 | 29 | 4.0 | 13.0 | 0.00 | 0.11 | 0.02 | 74 | 1016.7 |
| 20260507160423 | 55 | 95 | 4.0 | 10.0 | 0.00 | 0.11 | 0.02 | 75 | 1016.5 |
| 20260507160409 | 55 | 322 | 4.0 | 13.0 | 0.00 | 0.11 | 0.02 | 74 | 1016.8 |
| 20260507160349 | 55 | 333 | 4.0 | 13.0 | 0.00 | 0.11 | 0.02 | 73 | 1016.7 |
| 20260507160005 | 55 | 44 | 4.0 | 10.0 | 0.00 | 0.11 | 0.02 | 76 | 1016.5 |
| 20260507155906 | 55 | 355 | 4.0 | 11.0 | 0.00 | 0.11 | 0.02 | 75 | 1016.7 |
| 20260507155806 | 54 | 333 | 4.0 | 11.0 | 0.00 | 0.11 | 0.02 | 77 | 1016.5 |
| 20260507155705 | 54 | 68 | 4.0 | 11.0 | 0.00 | 0.11 | 0.02 | 79 | 1016.5 |
| 20260507155605 | 54 | 0 | 4.0 | 11.0 | 0.00 | 0.11 | 0.02 | 76 | 1016.8 |
| 20260507155450 | 54 | 85 | 4.0 | 11.0 | 0.00 | 0.11 | 0.02 | 75 | 1016.7 |
| 20260507155352 | 54 | 42 | 4.0 | 11.0 | 0.00 | 0.11 | 0.02 | 75 | 1016.7 |
| 20260507155250 | 54 | 84 | 4.0 | 11.0 | 0.00 | 0.11 | 0.02 | 77 | 1016.8 |
| 20260507155152 | 54 | 72 | 4.0 | 11.0 | 0.00 | 0.11 | 0.02 | 79 | 1016.8 |
| 20260507155127 | 53 | 43 | 4.0 | 11.0 | 0.00 | 0.11 | 0.02 | 78 | 1016.9 |
| 20260507155115 | 53 | 65 | 4.0 | 11.0 | 0.00 | 0.11 | 0.02 | 79 | 1016.8 |
| 20260507154851 | 53 | 328 | 4.0 | 11.0 | 0.00 | 0.11 | 0.02 | 78 | 1016.9 |
| 20260507154750 | 54 | 55 | 4.0 | 11.0 | 0.00 | 0.11 | 0.02 | 77 | 1016.8 |
| 20260507154651 | 54 | 5 | 4.0 | 11.0 | 0.00 | 0.11 | 0.02 | 77 | 1016.8 |
| 20260507154551 | 54 | 338 | 4.0 | 11.0 | 0.00 | 0.11 | 0.02 | 77 | 1016.8 |
| 20260507154452 | 54 | 0 | 4.0 | 11.0 | 0.00 | 0.11 | 0.02 | 78 | 1016.7 |
| 20260507154351 | 54 | 344 | 4.0 | 11.0 | 0.00 | 0.11 | 0.02 | 80 | 1016.7 |
| 20260507154250 | 54 | 40 | 4.0 | 11.0 | 0.00 | 0.11 | 0.02 | 78 | 1016.7 |
| 20260507154152 | 54 | 67 | 4.0 | 11.0 | 0.00 | 0.11 | 0.02 | 81 | 1016.7 |
| 20260507154052 | 54 | 317 | 5.0 | 11.0 | 0.00 | 0.11 | 0.02 | 80 | 1016.7 |
| 20260507153951 | 53 | 42 | 5.0 | 11.0 | 0.00 | 0.11 | 0.02 | 79 | 1016.7 |
| 20260507153853 | 53 | 76 | 5.0 | 11.0 | 0.00 | 0.11 | 0.02 | 78 | 1016.7 |
| 20260507153809 | 53 | 28 | 5.0 | 13.0 | 0.00 | 0.11 | 0.02 | 79 | 1016.5 |
| 20260507153803 | 53 | 37 | 5.0 | 13.0 | 0.00 | 0.11 | 0.02 | 81 | 1016.7 |
| 20260507153752 | 53 | 86 | 5.0 | 11.0 | 0.00 | 0.11 | 0.02 | 80 | 1016.7 |
| 20260507153728 | 53 | 42 | 5.0 | 13.0 | 0.00 | 0.11 | 0.02 | 79 | 1016.7 |
| 20260507153345 | 53 | 65 | 4.0 | 13.0 | 0.00 | 0.11 | 0.02 | 82 | 1016.5 |
| 20260507153242 | 53 | 21 | 5.0 | 13.0 | 0.00 | 0.11 | 0.02 | 83 | 1016.7 |
| 20260507153141 | 53 | 55 | 5.0 | 13.0 | 0.00 | 0.11 | 0.02 | 83 | 1016.7 |
| 20260507153040 | 53 | 29 | 4.0 | 13.0 | 0.00 | 0.11 | 0.02 | 81 | 1016.7 |
| 20260507152940 | 53 | 28 | 4.0 | 13.0 | 0.00 | 0.11 | 0.02 | 83 | 1016.7 |
| 20260507152841 | 53 | 28 | 4.0 | 13.0 | 0.00 | 0.11 | 0.02 | 84 | 1016.5 |
| 20260507152741 | 53 | 328 | 4.0 | 13.0 | 0.00 | 0.11 | 0.02 | 86 | 1016.5 |
| 20260507152641 | 52 | 90 | 4.0 | 12.0 | 0.00 | 0.11 | 0.02 | 88 | 1016.7 |
| 20260507152540 | 52 | 48 | 4.0 | 12.0 | 0.00 | 0.11 | 0.02 | 87 | 1016.7 |
| 20260507152440 | 52 | 26 | 4.0 | 12.0 | 0.00 | 0.11 | 0.02 | 90 | 1016.7 |
| 20260507152341 | 52 | 28 | 4.0 | 12.0 | 0.00 | 0.11 | 0.02 | 90 | 1016.7 |
| 20260507152241 | 51 | 341 | 4.0 | 12.0 | 0.00 | 0.11 | 0.02 | 92 | 1016.5 |
| 20260507152141 | 51 | 59 | 4.0 | 10.0 | 0.00 | 0.11 | 0.02 | 95 | 1016.4 |
| 20260507152037 | 51 | 72 | 4.0 | 10.0 | 0.00 | 0.11 | 0.02 | 95 | 1016.4 |
| 20260507151936 | 51 | 70 | 4.0 | 10.0 | 0.00 | 0.11 | 0.02 | 95 | 1016.4 |
| 20260507151837 | 51 | 31 | 4.0 | 10.0 | 0.00 | 0.11 | 0.02 | 95 | 1016.4 |
| 20260507151738 | 51 | 344 | 4.0 | 10.0 | 0.00 | 0.11 | 0.02 | 94 | 1016.4 |
| 20260507151636 | 51 | 355 | 4.0 | 10.0 | 0.00 | 0.11 | 0.02 | 94 | 1016.4 |
| 20260507151529 | 51 | 86 | 4.0 | 10.0 | 0.00 | 0.11 | 0.02 | 94 | 1016.4 |
| 20260507151428 | 51 | 59 | 4.0 | 9.0 | 0.00 | 0.11 | 0.02 | 94 | 1016.4 |
| 20260507151329 | 51 | 5 | 4.0 | 9.0 | 0.00 | 0.11 | 0.02 | 94 | 1016.4 |
| 20260507151230 | 51 | 331 | 4.0 | 12.0 | 0.00 | 0.11 | 0.02 | 94 | 1016.4 |
| 20260507151130 | 51 | 19 | 4.0 | 12.0 | 0.00 | 0.11 | 0.02 | 94 | 1016.3 |
| 20260507151024 | 51 | 349 | 3.0 | 12.0 | 0.00 | 0.11 | 0.02 | 94 | 1016.2 |
| 20260507150922 | 51 | 23 | 3.0 | 12.0 | 0.00 | 0.11 | 0.02 | 94 | 1016.3 |
| 20260507150822 | 51 | 38 | 4.0 | 12.0 | 0.00 | 0.11 | 0.02 | 94 | 1016.4 |
| 20260507150722 | 51 | 15 | 4.0 | 12.0 | 0.00 | 0.11 | 0.02 | 94 | 1016.5 |
| 20260507150623 | 51 | 40 | 4.0 | 12.0 | 0.00 | 0.11 | 0.02 | 94 | 1016.4 |
| 20260507150524 | 51 | 36 | 4.0 | 12.0 | 0.00 | 0.11 | 0.02 | 94 | 1016.4 |
| 20260507150424 | 51 | 70 | 4.0 | 12.0 | 0.00 | 0.11 | 0.02 | 94 | 1016.4 |
| 20260507150324 | 51 | 344 | 4.0 | 12.0 | 0.00 | 0.11 | 0.02 | 94 | 1016.4 |
| 20260507150222 | 51 | 105 | 4.0 | 12.0 | 0.00 | 0.11 | 0.02 | 94 | 1016.4 |
| 20260507150123 | 50 | 26 | 4.0 | 12.0 | 0.00 | 0.11 | 0.02 | 94 | 1016.4 |
| 20260507150024 | 50 | 89 | 4.0 | 12.0 | 0.00 | 0.11 | 0.02 | 94 | 1016.4 |
| 20260507145920 | 50 | 45 | 5.0 | 12.0 | 0.00 | 0.11 | 0.02 | 94 | 1016.3 |
| 20260507145820 | 50 | 24 | 5.0 | 12.0 | 0.00 | 0.11 | 0.02 | 94 | 1016.4 |
| 20260507145722 | 50 | 42 | 4.0 | 12.0 | 0.00 | 0.11 | 0.02 | 94 | 1016.3 |
| 20260507145621 | 49 | 84 | 5.0 | 12.0 | 0.00 | 0.11 | 0.02 | 94 | 1016.4 |
| 20260507145521 | 49 | 19 | 4.0 | 12.0 | 0.00 | 0.11 | 0.02 | 94 | 1016.4 |
| 20260507145422 | 49 | 56 | 4.0 | 12.0 | 0.00 | 0.11 | 0.02 | 94 | 1016.4 |
| 20260507145348 | 49 | 316 | 4.0 | 12.0 | 0.00 | 0.11 | 0.02 | 94 | 1016.3 |
| 20260507145334 | 49 | 13 | 4.0 | 12.0 | 0.00 | 0.11 | 0.02 | 94 | 1016.3 |
| 20260507145113 | 49 | 40 | 4.0 | 12.0 | 0.00 | 0.11 | 0.02 | 94 | 1016.3 |
| 20260507145013 | 49 | 5 | 4.0 | 12.0 | 0.00 | 0.11 | 0.02 | 94 | 1016.3 |
| 20260507144914 | 49 | 13 | 4.0 | 11.0 | 0.00 | 0.11 | 0.02 | 94 | 1016.3 |
| 20260507144900 | 49 | 75 | 4.0 | 11.0 | 0.00 | 0.11 | 0.02 | 94 | 1016.3 |
| 20260507144854 | 49 | 52 | 4.0 | 11.0 | 0.00 | 0.11 | 0.02 | 94 | 1016.3 |
| 20260507144850 | 49 | 58 | 4.0 | 11.0 | 0.00 | 0.11 | 0.02 | 94 | 1016.3 |
| 20260507144836 | 49 | 47 | 4.0 | 11.0 | 0.00 | 0.11 | 0.02 | 94 | 1016.4 |
| 20260507144648 | 49 | 62 | 4.0 | 11.0 | 0.00 | 0.11 | 0.02 | 94 | 1016.3 |
| 20260507144311 | 49 | 22 | 4.0 | 11.0 | 0.00 | 0.11 | 0.02 | 94 | 1016.2 |
| 20260507144211 | 48 | 43 | 4.0 | 11.0 | 0.00 | 0.11 | 0.02 | 94 | 1016.2 |
| 20260507144149 | 48 | 109 | 4.0 | 10.0 | 0.00 | 0.11 | 0.02 | 94 | 1016.3 |
| 20260507144134 | 48 | 35 | 4.0 | 11.0 | 0.00 | 0.11 | 0.02 | 94 | 1016.3 |
| 20260507143912 | 48 | 76 | 4.0 | 10.0 | 0.00 | 0.11 | 0.02 | 94 | 1016.4 |
| 20260507143808 | 48 | 59 | 4.0 | 10.0 | 0.00 | 0.11 | 0.02 | 94 | 1016.4 |
| 20260507143708 | 48 | 80 | 4.0 | 11.0 | 0.00 | 0.11 | 0.02 | 94 | 1016.3 |
| 20260507143608 | 48 | 40 | 4.0 | 12.0 | 0.00 | 0.11 | 0.02 | 94 | 1016.4 |
| 20260507143550 | 47 | 49 | 4.0 | 12.0 | 0.00 | 0.11 | 0.02 | 94 | 1016.3 |
| 20260507143534 | 47 | 73 | 4.0 | 12.0 | 0.00 | 0.11 | 0.02 | 94 | 1016.3 |
| 20260507143309 | 47 | 80 | 5.0 | 12.0 | 0.00 | 0.11 | 0.02 | 94 | 1016.4 |
| 20260507143230 | 47 | 50 | 5.0 | 12.0 | 0.00 | 0.11 | 0.02 | 94 | 1016.3 |
| 20260507143224 | 47 | 57 | 5.0 | 12.0 | 0.00 | 0.11 | 0.02 | 94 | 1016.4 |
| 20260507143216 | 47 | 58 | 5.0 | 12.0 | 0.00 | 0.11 | 0.02 | 94 | 1016.4 |
| 20260507143151 | 47 | 88 | 5.0 | 12.0 | 0.00 | 0.11 | 0.02 | 94 | 1016.4 |
| 20260507142809 | 47 | 38 | 5.0 | 12.0 | 0.00 | 0.11 | 0.02 | 94 | 1016.3 |
| 20260507142708 | 47 | 74 | 4.0 | 12.0 | 0.00 | 0.11 | 0.02 | 94 | 1016.3 |
| 20260507142609 | 47 | 45 | 4.0 | 12.0 | 0.00 | 0.11 | 0.02 | 94 | 1016.2 |
| 20260507142509 | 47 | 22 | 4.0 | 12.0 | 0.00 | 0.11 | 0.02 | 94 | 1016.2 |
| 20260507142442 | 47 | 42 | 4.0 | 12.0 | 0.00 | 0.11 | 0.02 | 94 | 1016.2 |
| 20260507142430 | 47 | 46 | 4.0 | 11.0 | 0.00 | 0.11 | 0.02 | 94 | 1016.2 |
| 20260507142244 | 47 | 58 | 5.0 | 12.0 | 0.00 | 0.11 | 0.02 | 94 | 1016.2 |
| 20260507142230 | 47 | 40 | 5.0 | 12.0 | 0.00 | 0.11 | 0.02 | 94 | 1016.2 |
| 20260507142009 | 47 | 18 | 5.0 | 12.0 | 0.00 | 0.11 | 0.02 | 94 | 1016.3 |
| 20260507141908 | 47 | 53 | 5.0 | 12.0 | 0.00 | 0.11 | 0.02 | 94 | 1016.1 |
| 20260507141808 | 47 | 61 | 5.0 | 12.0 | 0.00 | 0.11 | 0.02 | 94 | 1016.2 |
| 20260507141709 | 47 | 28 | 5.0 | 12.0 | 0.00 | 0.11 | 0.02 | 94 | 1016.1 |
| 20260507141630 | 47 | 70 | 5.0 | 12.0 | 0.00 | 0.11 | 0.02 | 94 | 1016.1 |
| 20260507141626 | 47 | 64 | 5.0 | 12.0 | 0.00 | 0.11 | 0.02 | 94 | 1016.0 |
| 20260507141614 | 47 | 19 | 5.0 | 12.0 | 0.00 | 0.11 | 0.02 | 94 | 1016.1 |
| 20260507141550 | 47 | 315 | 5.0 | 12.0 | 0.00 | 0.11 | 0.02 | 94 | 1016.1 |
| 20260507141208 | 47 | 58 | 5.0 | 15.0 | 0.00 | 0.11 | 0.02 | 94 | 1016.0 |
| 20260507141153 | 47 | 48 | 5.0 | 15.0 | 0.00 | 0.11 | 0.02 | 94 | 1015.8 |
| 20260507141147 | 47 | 42 | 5.0 | 15.0 | 0.00 | 0.11 | 0.02 | 94 | 1015.9 |
| 20260507141135 | 47 | 44 | 5.0 | 15.0 | 0.00 | 0.11 | 0.02 | 94 | 1016.0 |
| 20260507141112 | 47 | 64 | 5.0 | 15.0 | 0.00 | 0.11 | 0.02 | 94 | 1015.9 |
| 20260507140947 | 47 | 30 | 5.0 | 15.0 | 0.00 | 0.11 | 0.02 | 94 | 1015.9 |
| 20260507140609 | 47 | 47 | 5.0 | 15.0 | 0.00 | 0.11 | 0.02 | 94 | 1015.9 |
| 20260507140509 | 47 | 16 | 5.0 | 15.0 | 0.00 | 0.11 | 0.02 | 94 | 1015.9 |
| 20260507140409 | 47 | 15 | 5.0 | 15.0 | 0.00 | 0.11 | 0.02 | 94 | 1015.8 |
| 20260507140310 | 47 | 44 | 4.0 | 15.0 | 0.00 | 0.11 | 0.02 | 94 | 1015.8 |
| 20260507140245 | 47 | 72 | 4.0 | 14.0 | 0.00 | 0.11 | 0.02 | 94 | 1015.8 |
| 20260507140232 | 47 | 55 | 4.0 | 14.0 | 0.00 | 0.11 | 0.02 | 94 | 1015.8 |
| 20260507140010 | 47 | 58 | 4.0 | 14.0 | 0.00 | 0.11 | 0.02 | 94 | 1015.8 |
| 20260507135909 | 47 | 42 | 4.0 | 14.0 | 0.00 | 0.11 | 0.02 | 94 | 1015.8 |
| 20260507135808 | 47 | 57 | 5.0 | 14.0 | 0.00 | 0.11 | 0.02 | 94 | 1015.8 |
| 20260507135736 | 46 | 36 | 5.0 | 14.0 | 0.00 | 0.11 | 0.02 | 94 | 1015.8 |
| 20260507135727 | 47 | 74 | 5.0 | 14.0 | 0.00 | 0.11 | 0.02 | 94 | 1015.8 |
| 20260507135506 | 46 | 44 | 5.0 | 13.0 | 0.00 | 0.11 | 0.02 | 94 | 1015.7 |
| 20260507135406 | 46 | 82 | 6.0 | 15.0 | 0.00 | 0.11 | 0.02 | 94 | 1015.7 |
| 20260507135352 | 46 | 68 | 5.0 | 13.0 | 0.00 | 0.11 | 0.02 | 94 | 1015.8 |
| 20260507135346 | 46 | 40 | 5.0 | 15.0 | 0.00 | 0.11 | 0.02 | 94 | 1015.7 |
| 20260507135341 | 46 | 51 | 6.0 | 15.0 | 0.00 | 0.11 | 0.02 | 94 | 1015.7 |
| 20260507135335 | 46 | 41 | 6.0 | 15.0 | 0.00 | 0.11 | 0.02 | 94 | 1015.8 |
| 20260507135325 | 46 | 65 | 6.0 | 15.0 | 0.00 | 0.11 | 0.02 | 94 | 1015.7 |
| 20260507135301 | 46 | 65 | 6.0 | 15.0 | 0.00 | 0.11 | 0.02 | 94 | 1015.8 |
| 20260507135124 | 46 | 56 | 6.0 | 15.0 | 0.00 | 0.11 | 0.02 | 94 | 1015.8 |
| 20260507134847 | 46 | 67 | 5.0 | 13.0 | 0.00 | 0.11 | 0.02 | 94 | 1015.7 |
| 20260507134841 | 46 | 16 | 6.0 | 15.0 | 0.00 | 0.11 | 0.02 | 94 | 1015.7 |
| 20260507134836 | 46 | 49 | 6.0 | 15.0 | 0.00 | 0.11 | 0.02 | 94 | 1015.7 |
| 20260507134822 | 46 | 63 | 6.0 | 15.0 | 0.00 | 0.11 | 0.02 | 94 | 1015.7 |
| 20260507134201 | 46 | 40 | 5.0 | 13.0 | 0.00 | 0.11 | 0.02 | 94 | 1015.7 |
| 20260507134124 | 46 | 54 | 5.0 | 16.0 | 0.00 | 0.11 | 0.02 | 94 | 1015.6 |
| 20260507134119 | 46 | 67 | 6.0 | 16.0 | 0.00 | 0.11 | 0.02 | 94 | 1015.6 |
| 20260507134108 | 46 | 51 | 5.0 | 13.0 | 0.00 | 0.11 | 0.02 | 94 | 1015.7 |
| 20260507134046 | 46 | 67 | 5.0 | 13.0 | 0.00 | 0.11 | 0.02 | 94 | 1015.6 |
| 20260507133700 | 46 | 26 | 6.0 | 16.0 | 0.00 | 0.11 | 0.02 | 94 | 1015.6 |
| 20260507133601 | 46 | 68 | 5.0 | 16.0 | 0.00 | 0.11 | 0.02 | 94 | 1015.5 |
| 20260507133502 | 46 | 55 | 5.0 | 16.0 | 0.00 | 0.11 | 0.02 | 94 | 1015.5 |
| 20260507133401 | 46 | 45 | 5.0 | 16.0 | 0.00 | 0.11 | 0.02 | 94 | 1015.5 |
| 20260507133336 | 46 | 355 | 5.0 | 16.0 | 0.00 | 0.11 | 0.02 | 94 | 1015.5 |
| 20260507133324 | 47 | 63 | 5.0 | 16.0 | 0.00 | 0.11 | 0.02 | 94 | 1015.4 |
| 20260507133102 | 46 | 69 | 5.0 | 16.0 | 0.00 | 0.11 | 0.02 | 94 | 1015.5 |
| 20260507133000 | 46 | 61 | 5.0 | 16.0 | 0.00 | 0.11 | 0.02 | 94 | 1015.6 |
| 20260507132935 | 47 | 76 | 5.0 | 13.0 | 0.00 | 0.11 | 0.02 | 94 | 1015.6 |
| 20260507132925 | 47 | 69 | 5.0 | 13.0 | 0.00 | 0.11 | 0.02 | 94 | 1015.6 |
| 20260507132700 | 47 | 43 | 5.0 | 13.0 | 0.00 | 0.11 | 0.02 | 94 | 1015.6 |
| 20260507132649 | 46 | 42 | 6.0 | 16.0 | 0.00 | 0.11 | 0.02 | 94 | 1015.7 |
| 20260507132645 | 46 | 40 | 6.0 | 16.0 | 0.00 | 0.11 | 0.02 | 94 | 1015.6 |
| 20260507132632 | 47 | 83 | 6.0 | 14.0 | 0.00 | 0.11 | 0.02 | 94 | 1015.6 |
| 20260507132449 | 46 | 56 | 6.0 | 16.0 | 0.00 | 0.11 | 0.02 | 94 | 1015.7 |
| 20260507132325 | 46 | 22 | 6.0 | 16.0 | 0.00 | 0.11 | 0.02 | 94 | 1015.7 |
| 20260507132100 | 46 | 27 | 6.0 | 16.0 | 0.00 | 0.11 | 0.02 | 94 | 1015.7 |
| 20260507132000 | 46 | 29 | 6.0 | 16.0 | 0.00 | 0.11 | 0.02 | 94 | 1015.6 |
| 20260507131859 | 46 | 65 | 6.0 | 16.0 | 0.00 | 0.11 | 0.02 | 94 | 1015.7 |
| 20260507131800 | 46 | 61 | 6.0 | 16.0 | 0.00 | 0.11 | 0.02 | 94 | 1015.7 |
| 20260507131701 | 46 | 68 | 6.0 | 16.0 | 0.00 | 0.11 | 0.02 | 94 | 1015.7 |
| 20260507131602 | 46 | 59 | 6.0 | 16.0 | 0.00 | 0.11 | 0.02 | 94 | 1015.8 |
| 20260507131500 | 46 | 22 | 5.0 | 14.0 | 0.00 | 0.11 | 0.02 | 94 | 1015.8 |
| 20260507131434 | 46 | 63 | 5.0 | 14.0 | 0.00 | 0.11 | 0.02 | 94 | 1015.7 |
| 20260507131423 | 46 | 5 | 6.0 | 14.0 | 0.00 | 0.11 | 0.02 | 94 | 1015.6 |
| 20260507131201 | 46 | 56 | 5.0 | 14.0 | 0.00 | 0.11 | 0.02 | 94 | 1015.8 |
| 20260507131100 | 46 | 22 | 5.0 | 14.0 | 0.00 | 0.11 | 0.02 | 94 | 1015.7 |
| 20260507131001 | 46 | 45 | 5.0 | 14.0 | 0.00 | 0.11 | 0.02 | 94 | 1015.7 |
| 20260507130858 | 46 | 26 | 5.0 | 14.0 | 0.00 | 0.11 | 0.02 | 94 | 1015.7 |
| 20260507130759 | 46 | 40 | 5.0 | 14.0 | 0.00 | 0.11 | 0.02 | 94 | 1015.6 |
| 20260507130659 | 46 | 70 | 5.0 | 14.0 | 0.00 | 0.11 | 0.02 | 94 | 1015.5 |
| 20260507130559 | 46 | 5 | 5.0 | 14.0 | 0.00 | 0.11 | 0.02 | 94 | 1015.6 |
| 20260507130458 | 46 | 57 | 5.0 | 14.0 | 0.00 | 0.11 | 0.02 | 94 | 1015.4 |
| 20260507130357 | 46 | 33 | 5.0 | 13.0 | 0.00 | 0.11 | 0.02 | 94 | 1015.7 |
| 20260507130255 | 46 | 39 | 5.0 | 13.0 | 0.00 | 0.11 | 0.02 | 94 | 1015.6 |
| 20260507130155 | 46 | 51 | 5.0 | 13.0 | 0.00 | 0.11 | 0.02 | 94 | 1015.6 |
| 20260507130055 | 46 | 92 | 5.0 | 13.0 | 0.00 | 0.11 | 0.02 | 94 | 1015.6 |
| 20260507125955 | 46 | 50 | 5.0 | 15.0 | 0.00 | 0.11 | 0.02 | 94 | 1015.6 |
| 20260507125929 | 46 | 51 | 6.0 | 15.0 | 0.00 | 0.11 | 0.02 | 94 | 1015.5 |
| 20260507125917 | 46 | 40 | 6.0 | 15.0 | 0.00 | 0.11 | 0.02 | 94 | 1015.6 |
| 20260507125655 | 46 | 20 | 6.0 | 15.0 | 0.00 | 0.11 | 0.02 | 94 | 1015.5 |
| 20260507125554 | 46 | 58 | 6.0 | 15.0 | 0.00 | 0.11 | 0.02 | 94 | 1015.5 |
| 20260507125455 | 46 | 46 | 7.0 | 15.0 | 0.00 | 0.11 | 0.02 | 94 | 1015.4 |
| 20260507125354 | 46 | 51 | 7.0 | 15.0 | 0.00 | 0.11 | 0.02 | 94 | 1015.5 |
| 20260507125255 | 46 | 58 | 7.0 | 15.0 | 0.00 | 0.11 | 0.02 | 94 | 1015.5 |
| 20260507125154 | 46 | 80 | 7.0 | 17.0 | 0.00 | 0.11 | 0.02 | 94 | 1015.4 |
| 20260507125055 | 46 | 90 | 7.0 | 17.0 | 0.00 | 0.11 | 0.02 | 94 | 1015.5 |
| 20260507124954 | 46 | 60 | 7.0 | 17.0 | 0.00 | 0.11 | 0.02 | 94 | 1015.4 |
| 20260507124854 | 46 | 28 | 7.0 | 17.0 | 0.00 | 0.11 | 0.02 | 94 | 1015.4 |
| 20260507124755 | 46 | 32 | 7.0 | 17.0 | 0.00 | 0.11 | 0.02 | 94 | 1015.4 |
| 20260507124732 | 46 | 39 | 7.0 | 17.0 | 0.00 | 0.11 | 0.02 | 94 | 1015.4 |
| 20260507124718 | 46 | 65 | 7.0 | 17.0 | 0.00 | 0.11 | 0.02 | 94 | 1015.4 |
| 20260507124454 | 46 | 43 | 7.0 | 17.0 | 0.00 | 0.11 | 0.02 | 94 | 1015.3 |
| 20260507124428 | 46 | 31 | 7.0 | 17.0 | 0.00 | 0.11 | 0.02 | 94 | 1015.3 |
| 20260507124418 | 46 | 65 | 7.0 | 17.0 | 0.00 | 0.11 | 0.02 | 94 | 1015.4 |
| 20260507124153 | 46 | 33 | 7.0 | 16.0 | 0.00 | 0.11 | 0.02 | 94 | 1015.3 |
| 20260507124054 | 46 | 61 | 7.0 | 16.0 | 0.00 | 0.11 | 0.02 | 94 | 1015.4 |
| 20260507123957 | 46 | 48 | 7.0 | 16.0 | 0.00 | 0.11 | 0.02 | 94 | 1015.3 |
| 20260507123855 | 46 | 38 | 6.0 | 16.0 | 0.00 | 0.11 | 0.02 | 94 | 1015.3 |
| 20260507123754 | 46 | 46 | 7.0 | 16.0 | 0.00 | 0.11 | 0.02 | 94 | 1015.4 |
| 20260507123717 | 46 | 65 | 6.0 | 17.0 | 0.00 | 0.11 | 0.02 | 94 | 1015.3 |
| 20260507123711 | 46 | 13 | 6.0 | 17.0 | 0.00 | 0.11 | 0.02 | 94 | 1015.3 |
| 20260507123659 | 46 | 46 | 7.0 | 17.0 | 0.00 | 0.11 | 0.02 | 94 | 1015.3 |
| 20260507123634 | 46 | 47 | 7.0 | 17.0 | 0.00 | 0.11 | 0.02 | 94 | 1015.3 |
| 20260507123322 | 46 | 31 | 6.0 | 17.0 | 0.00 | 0.11 | 0.02 | 94 | 1015.2 |
| 20260507123310 | 46 | 86 | 6.0 | 17.0 | 0.00 | 0.11 | 0.02 | 94 | 1015.3 |
| 20260507123047 | 46 | 55 | 6.0 | 17.0 | 0.00 | 0.11 | 0.02 | 94 | 1015.4 |
| 20260507122942 | 46 | 44 | 6.0 | 17.0 | 0.00 | 0.11 | 0.02 | 94 | 1015.4 |
| 20260507122841 | 45 | 38 | 7.0 | 17.0 | 0.00 | 0.11 | 0.02 | 94 | 1015.3 |
| 20260507122741 | 45 | 46 | 7.0 | 17.0 | 0.00 | 0.11 | 0.02 | 94 | 1015.4 |
| 20260507122640 | 46 | 76 | 6.0 | 16.0 | 0.00 | 0.11 | 0.02 | 94 | 1015.3 |
| 20260507122541 | 46 | 53 | 7.0 | 16.0 | 0.00 | 0.11 | 0.02 | 94 | 1015.4 |
| 20260507122436 | 46 | 53 | 7.0 | 16.0 | 0.00 | 0.11 | 0.02 | 94 | 1015.3 |
| 20260507122335 | 46 | 30 | 7.0 | 16.0 | 0.00 | 0.11 | 0.02 | 94 | 1015.3 |
| 20260507122235 | 46 | 35 | 6.0 | 16.0 | 0.00 | 0.11 | 0.02 | 94 | 1015.2 |
| 20260507122134 | 46 | 62 | 7.0 | 14.0 | 0.00 | 0.11 | 0.02 | 94 | 1015.3 |
| 20260507122034 | 46 | 48 | 7.0 | 14.0 | 0.00 | 0.11 | 0.02 | 94 | 1015.3 |
| 20260507121921 | 46 | 80 | 7.0 | 14.0 | 0.00 | 0.11 | 0.02 | 94 | 1015.3 |
| 20260507121855 | 46 | 59 | 7.0 | 14.0 | 0.00 | 0.11 | 0.02 | 94 | 1015.2 |
| 20260507121845 | 46 | 63 | 7.0 | 14.0 | 0.00 | 0.11 | 0.02 | 94 | 1015.2 |
| 20260507121656 | 46 | 31 | 7.0 | 16.0 | 0.00 | 0.11 | 0.02 | 94 | 1015.3 |
| 20260507121645 | 46 | 9 | 7.0 | 16.0 | 0.00 | 0.11 | 0.02 | 94 | 1015.3 |
| 20260507121415 | 46 | 38 | 7.0 | 16.0 | 0.00 | 0.11 | 0.02 | 94 | 1015.2 |
| 20260507121316 | 46 | 42 | 7.0 | 19.0 | 0.00 | 0.11 | 0.02 | 94 | 1015.2 |
| 20260507121216 | 46 | 38 | 7.0 | 19.0 | 0.00 | 0.11 | 0.02 | 94 | 1015.2 |
| 20260507121115 | 46 | 355 | 7.0 | 19.0 | 0.00 | 0.11 | 0.02 | 94 | 1015.3 |
| 20260507121015 | 46 | 69 | 7.0 | 19.0 | 0.00 | 0.11 | 0.02 | 94 | 1015.3 |
| 20260507120909 | 46 | 32 | 7.0 | 19.0 | 0.00 | 0.11 | 0.02 | 94 | 1015.3 |
| 20260507120807 | 46 | 64 | 7.0 | 19.0 | 0.00 | 0.11 | 0.02 | 94 | 1015.3 |
| 20260507120708 | 46 | 69 | 7.0 | 19.0 | 0.00 | 0.11 | 0.02 | 94 | 1015.2 |
| 20260507120609 | 46 | 52 | 7.0 | 19.0 | 0.00 | 0.11 | 0.02 | 94 | 1015.1 |
| 20260507120509 | 46 | 53 | 7.0 | 19.0 | 0.00 | 0.11 | 0.02 | 94 | 1015.1 |
| 20260507120359 | 46 | 40 | 7.0 | 19.0 | 0.00 | 0.11 | 0.02 | 94 | 1015.0 |
| 20260507120259 | 46 | 26 | 8.0 | 15.0 | 0.00 | 0.11 | 0.02 | 94 | 1015.0 |
| 20260507120159 | 46 | 85 | 7.0 | 15.0 | 0.00 | 0.11 | 0.02 | 94 | 1015.1 |
| 20260507120059 | 46 | 18 | 7.0 | 15.0 | 0.00 | 0.11 | 0.02 | 94 | 1015.0 |
| 20260507120022 | 46 | 0 | 7.0 | 15.0 | 0.00 | 0.11 | 0.02 | 94 | 1015.0 |
| 20260507120014 | 46 | 39 | 7.0 | 15.0 | 0.00 | 0.11 | 0.02 | 94 | 1015.0 |
| 20260507115755 | 46 | 30 | 8.0 | 18.0 | 0.00 | 0.11 | 0.02 | 94 | 1015.0 |
| 20260507115654 | 46 | 59 | 8.0 | 18.0 | 0.00 | 0.11 | 0.02 | 94 | 1015.0 |
| 20260507115558 | 46 | 43 | 8.0 | 18.0 | 0.00 | 0.11 | 0.02 | 94 | 1015.0 |
| 20260507115453 | 46 | 30 | 7.0 | 18.0 | 0.00 | 0.11 | 0.02 | 94 | 1015.0 |
| 20260507115352 | 46 | 87 | 7.0 | 18.0 | 0.00 | 0.11 | 0.02 | 94 | 1015.0 |
| 20260507115251 | 46 | 30 | 7.0 | 18.0 | 0.00 | 0.11 | 0.02 | 94 | 1015.0 |
| 20260507115223 | 46 | 42 | 7.0 | 18.0 | 0.00 | 0.11 | 0.02 | 94 | 1015.0 |
| 20260507115211 | 46 | 50 | 7.0 | 18.0 | 0.00 | 0.11 | 0.02 | 94 | 1014.8 |
| 20260507114948 | 46 | 51 | 7.0 | 18.0 | 0.00 | 0.11 | 0.02 | 94 | 1015.0 |
| 20260507114834 | 46 | 35 | 7.0 | 18.0 | 0.00 | 0.11 | 0.02 | 94 | 1015.0 |
| 20260507114732 | 46 | 22 | 7.0 | 15.0 | 0.00 | 0.11 | 0.02 | 94 | 1015.0 |
| 20260507114634 | 46 | 36 | 7.0 | 15.0 | 0.00 | 0.11 | 0.02 | 94 | 1014.8 |
| 20260507114535 | 46 | 65 | 7.0 | 15.0 | 0.00 | 0.11 | 0.02 | 94 | 1014.8 |
| 20260507114432 | 46 | 84 | 7.0 | 15.0 | 0.00 | 0.11 | 0.02 | 94 | 1015.0 |
| 20260507114327 | 46 | 30 | 7.0 | 15.0 | 0.00 | 0.11 | 0.02 | 94 | 1015.0 |
| 20260507114227 | 46 | 65 | 7.0 | 14.0 | 0.00 | 0.11 | 0.02 | 94 | 1015.0 |
| 20260507114127 | 46 | 57 | 7.0 | 14.0 | 0.00 | 0.11 | 0.02 | 94 | 1015.0 |
| 20260507114026 | 46 | 64 | 7.0 | 14.0 | 0.00 | 0.11 | 0.02 | 94 | 1015.1 |
| 20260507113927 | 46 | 17 | 7.0 | 16.0 | 0.00 | 0.11 | 0.02 | 94 | 1015.0 |
| 20260507113822 | 46 | 40 | 7.0 | 16.0 | 0.00 | 0.11 | 0.02 | 94 | 1015.0 |
| 20260507113722 | 46 | 0 | 7.0 | 16.0 | 0.00 | 0.11 | 0.02 | 94 | 1014.8 |
| 20260507113623 | 46 | 35 | 7.0 | 19.0 | 0.00 | 0.11 | 0.02 | 94 | 1014.8 |
| 20260507113520 | 46 | 19 | 7.0 | 19.0 | 0.00 | 0.11 | 0.02 | 94 | 1014.8 |
| 20260507113420 | 46 | 49 | 7.0 | 19.0 | 0.00 | 0.11 | 0.02 | 94 | 1014.8 |
| 20260507113313 | 46 | 28 | 7.0 | 19.0 | 0.00 | 0.11 | 0.02 | 94 | 1014.8 |
| 20260507113253 | 46 | 73 | 7.0 | 19.0 | 0.00 | 0.11 | 0.02 | 94 | 1014.8 |
| 20260507113240 | 46 | 67 | 7.0 | 19.0 | 0.00 | 0.11 | 0.02 | 94 | 1014.8 |
| 20260507113013 | 46 | 34 | 7.0 | 19.0 | 0.00 | 0.11 | 0.02 | 94 | 1014.7 |
| 20260507112952 | 46 | 42 | 6.0 | 19.0 | 0.00 | 0.11 | 0.02 | 94 | 1014.8 |
| 20260507112806 | 46 | 48 | 6.0 | 19.0 | 0.00 | 0.11 | 0.02 | 94 | 1014.8 |
| 20260507112706 | 46 | 48 | 6.0 | 19.0 | 0.00 | 0.11 | 0.02 | 94 | 1014.8 |
| 20260507112606 | 46 | 60 | 6.0 | 17.0 | 0.00 | 0.11 | 0.02 | 94 | 1014.7 |
| 20260507112508 | 47 | 30 | 6.0 | 17.0 | 0.00 | 0.11 | 0.02 | 94 | 1014.8 |
| 20260507112405 | 46 | 62 | 6.0 | 17.0 | 0.00 | 0.11 | 0.02 | 94 | 1014.8 |
| 20260507112301 | 46 | 47 | 6.0 | 17.0 | 0.00 | 0.11 | 0.02 | 94 | 1014.8 |
| 20260507112200 | 47 | 65 | 6.0 | 17.0 | 0.00 | 0.11 | 0.02 | 94 | 1014.7 |
| 20260507112059 | 47 | 37 | 6.0 | 17.0 | 0.00 | 0.11 | 0.02 | 94 | 1014.7 |
| 20260507111958 | 47 | 58 | 6.0 | 17.0 | 0.00 | 0.11 | 0.02 | 94 | 1014.7 |
| 20260507111859 | 47 | 41 | 6.0 | 17.0 | 0.00 | 0.11 | 0.02 | 94 | 1014.8 |
| 20260507111746 | 47 | 51 | 6.0 | 17.0 | 0.00 | 0.12 | 0.02 | 94 | 1014.8 |
| 20260507111647 | 47 | 5 | 7.0 | 17.0 | 0.00 | 0.12 | 0.02 | 94 | 1014.7 |
| 20260507111545 | 47 | 44 | 7.0 | 17.0 | 0.00 | 0.12 | 0.02 | 94 | 1014.7 |
| 20260507111445 | 46 | 72 | 7.0 | 17.0 | 0.00 | 0.13 | 0.02 | 94 | 1014.7 |
| 20260507111346 | 47 | 326 | 7.0 | 17.0 | 0.00 | 0.13 | 0.02 | 94 | 1014.6 |
| 20260507111239 | 47 | 60 | 6.0 | 17.0 | 0.00 | 0.14 | 0.02 | 94 | 1014.6 |
| 20260507111139 | 47 | 47 | 6.0 | 16.0 | 0.00 | 0.14 | 0.02 | 94 | 1014.5 |
| 20260507111039 | 47 | 72 | 6.0 | 15.0 | 0.00 | 0.14 | 0.02 | 94 | 1014.4 |
| 20260507111016 | 47 | 38 | 6.0 | 16.0 | 0.00 | 0.15 | 0.02 | 94 | 1014.4 |
| 20260507111006 | 47 | 36 | 7.0 | 16.0 | 0.00 | 0.14 | 0.02 | 94 | 1014.4 |
| 20260507110739 | 47 | 28 | 7.0 | 16.0 | 0.00 | 0.16 | 0.02 | 94 | 1014.5 |
| 20260507110658 | 47 | 57 | 6.0 | 16.0 | 0.00 | 0.17 | 0.02 | 94 | 1014.4 |
| 20260507110652 | 47 | 38 | 7.0 | 16.0 | 0.00 | 0.17 | 0.02 | 94 | 1014.3 |
| 20260507110640 | 47 | 60 | 6.0 | 16.0 | 0.00 | 0.16 | 0.02 | 94 | 1014.5 |
| 20260507110619 | 47 | 50 | 6.0 | 16.0 | 0.00 | 0.16 | 0.02 | 94 | 1014.5 |
| 20260507110300 | 47 | 44 | 6.0 | 16.0 | 0.00 | 0.18 | 0.02 | 94 | 1014.4 |
| 20260507110246 | 47 | 5 | 6.0 | 16.0 | 0.00 | 0.17 | 0.02 | 94 | 1014.4 |
| 20260507110058 | 47 | 32 | 7.0 | 19.0 | 0.00 | 0.18 | 0.02 | 94 | 1014.2 |
| 20260507110045 | 47 | 65 | 6.0 | 16.0 | 0.00 | 0.18 | 0.02 | 94 | 1014.3 |
| 20260507105824 | 47 | 50 | 7.0 | 19.0 | 0.00 | 0.19 | 0.02 | 94 | 1014.3 |
| 20260507105718 | 47 | 42 | 7.0 | 19.0 | 0.00 | 0.19 | 0.02 | 94 | 1014.2 |
| 20260507105617 | 47 | 35 | 7.0 | 19.0 | 0.00 | 0.19 | 0.02 | 94 | 1014.3 |
| 20260507105530 | 46 | 44 | 7.0 | 19.0 | 0.00 | 0.22 | 0.02 | 94 | 1014.2 |
| 20260507105519 | 47 | 21 | 7.0 | 19.0 | 0.00 | 0.21 | 0.02 | 94 | 1014.2 |
| 20260507105512 | 46 | 39 | 7.0 | 19.0 | 0.00 | 0.22 | 0.02 | 94 | 1014.2 |
| 20260507105453 | 47 | 69 | 7.0 | 19.0 | 0.00 | 0.21 | 0.02 | 94 | 1014.2 |
| 20260507105146 | 46 | 49 | 7.0 | 19.0 | 0.00 | 0.23 | 0.02 | 94 | 1014.1 |
| 20260507105133 | 46 | 340 | 7.0 | 19.0 | 0.00 | 0.23 | 0.02 | 94 | 1014.2 |